Time,TemperatureF,DewpointF,PressureIn,WindDirection,WindDirectionDegrees,WindSpeedMPH,WindSpeedGustMPH,Humidity,HourlyPrecipIn,Conditions,Clouds,dailyrainin,SoftwareType,DateUTC
2013-05-26 00:00:00,48.0,42.4,30.27,East,89,1.0,1.0,81,0.00,,,0.16,Wunderground v.1.15,2013-05-26 05:00:00,
2013-05-26 00:03:00,47.9,42.3,30.27,East,89,0.0,1.0,81,0.00,,,0.00,Wunderground v.1.15,2013-05-26 05:03:00,
2013-05-26 00:04:00,47.9,42.3,30.28,East,89,0.0,1.0,81,0.00,,,0.00,Wunderground v.1.15,2013-05-26 05:04:00,
2013-05-26 00:05:00,47.9,42.3,30.27,East,89,0.0,1.0,81,0.00,,,0.00,Wunderground v.1.15,2013-05-26 05:05:00,
2013-05-26 00:10:00,47.9,42.3,30.27,East,89,0.0,0.0,81,0.00,,,0.00,Wunderground v.1.15,2013-05-26 05:10:00,
2013-05-26 00:11:00,47.8,42.3,30.28,East,89,0.0,0.0,81,0.00,,,0.00,Wunderground v.1.15,2013-05-26 05:11:00,
2013-05-26 00:16:00,47.7,42.2,30.28,East,89,0.0,1.0,81,0.00,,,0.00,Wunderground v.1.15,2013-05-26 05:16:00,
2013-05-26 00:17:00,47.7,42.2,30.28,East,89,0.0,1.0,81,0.00,,,0.00,Wunderground v.1.15,2013-05-26 05:17:00,
2013-05-26 00:19:00,47.7,42.2,30.28,East,89,0.0,1.0,81,0.00,,,0.00,Wunderground v.1.15,2013-05-26 05:19:00,
2013-05-26 00:21:00,47.6,42.1,30.28,East,89,0.0,0.0,81,0.00,,,0.00,Wunderground v.1.15,2013-05-26 05:21:00,
2013-05-26 00:22:00,47.6,42.4,30.28,East,89,0.0,0.0,82,0.00,,,0.00,Wunderground v.1.15,2013-05-26 05:22:00,
2013-05-26 00:26:00,47.5,42.3,30.27,East,89,0.0,0.0,82,0.00,,,0.00,Wunderground v.1.15,2013-05-26 05:26:00,
2013-05-26 00:27:00,47.4,42.2,30.27,East,89,0.0,0.0,82,0.00,,,0.00,Wunderground v.1.15,2013-05-26 05:27:00,
2013-05-26 00:31:00,47.2,42.0,30.27,East,89,0.0,0.0,82,0.00,,,0.00,Wunderground v.1.15,2013-05-26 05:31:00,
2013-05-26 00:32:00,47.2,42.0,30.27,East,89,0.0,0.0,82,0.00,,,0.00,Wunderground v.1.15,2013-05-26 05:32:00,
2013-05-26 00:33:00,47.2,42.0,30.27,East,89,0.0,0.0,82,0.00,,,0.00,Wunderground v.1.15,2013-05-26 05:33:00,
2013-05-26 00:37:00,47.0,42.1,30.27,East,89,0.0,3.0,83,0.00,,,0.00,Wunderground v.1.15,2013-05-26 05:37:00,
2013-05-26 00:38:00,46.9,42.0,30.27,East,89,0.0,3.0,83,0.00,,,0.00,Wunderground v.1.15,2013-05-26 05:38:00,
2013-05-26 00:39:00,46.9,42.0,30.27,East,89,0.0,3.0,83,0.00,,,0.00,Wunderground v.1.15,2013-05-26 05:39:00,
2013-05-26 00:44:00,46.6,41.7,30.27,East,89,0.0,0.0,83,0.00,,,0.00,Wunderground v.1.15,2013-05-26 05:44:00,
2013-05-26 00:45:00,46.6,41.7,30.27,East,89,0.0,2.0,83,0.00,,,0.00,Wunderground v.1.15,2013-05-26 05:45:00,
2013-05-26 00:47:00,46.5,41.9,30.27,East,89,1.0,2.0,84,0.00,,,0.00,Wunderground v.1.15,2013-05-26 05:47:00,
2013-05-26 00:49:00,46.5,41.9,30.27,East,89,0.0,2.0,84,0.00,,,0.00,Wunderground v.1.15,2013-05-26 05:49:00,
2013-05-26 00:51:00,46.5,41.9,30.27,East,89,0.0,0.0,84,0.00,,,0.00,Wunderground v.1.15,2013-05-26 05:51:00,
2013-05-26 00:53:00,46.4,41.5,30.27,East,89,0.0,0.0,83,0.00,,,0.00,Wunderground v.1.15,2013-05-26 05:53:00,
2013-05-26 00:57:00,46.4,41.8,30.27,East,89,0.0,0.0,84,0.00,,,0.00,Wunderground v.1.15,2013-05-26 05:57:00,
2013-05-26 00:58:00,46.4,41.8,30.27,East,89,0.0,1.0,84,0.00,,,0.00,Wunderground v.1.15,2013-05-26 05:58:00,
2013-05-26 00:59:00,46.4,41.8,30.27,East,89,0.0,1.0,84,0.00,,,0.00,Wunderground v.1.15,2013-05-26 05:59:00,
2013-05-26 01:01:00,46.3,41.7,30.27,East,89,0.0,0.0,84,0.00,,,0.00,Wunderground v.1.15,2013-05-26 06:01:00,
2013-05-26 01:02:00,46.3,41.7,30.26,East,89,0.0,0.0,84,0.00,,,0.00,Wunderground v.1.15,2013-05-26 06:02:00,
2013-05-26 01:03:00,46.3,41.7,30.26,East,89,0.0,0.0,84,0.00,,,0.00,Wunderground v.1.15,2013-05-26 06:03:00,
2013-05-26 01:06:00,46.3,41.7,30.26,East,89,0.0,0.0,84,0.00,,,0.00,Wunderground v.1.15,2013-05-26 06:06:00,
2013-05-26 01:09:00,46.2,41.6,30.26,East,89,0.0,0.0,84,0.00,,,0.00,Wunderground v.1.15,2013-05-26 06:09:00,
2013-05-26 01:10:00,46.2,41.3,30.26,East,89,0.0,0.0,83,0.00,,,0.00,Wunderground v.1.15,2013-05-26 06:10:00,
2013-05-26 01:12:00,46.2,41.3,30.26,East,89,0.0,0.0,83,0.00,,,0.00,Wunderground v.1.15,2013-05-26 06:12:00,
2013-05-26 01:16:00,46.1,41.2,30.26,East,89,0.0,0.0,83,0.00,,,0.00,Wunderground v.1.15,2013-05-26 06:16:00,
2013-05-26 01:17:00,46.1,41.2,30.26,East,89,0.0,0.0,83,0.00,,,0.00,Wunderground v.1.15,2013-05-26 06:17:00,
2013-05-26 01:18:00,46.1,41.5,30.26,East,89,0.0,0.0,84,0.00,,,0.00,Wunderground v.1.15,2013-05-26 06:18:00,
2013-05-26 01:20:00,46.0,41.4,30.26,East,89,0.0,0.0,84,0.00,,,0.00,Wunderground v.1.15,2013-05-26 06:20:00,
2013-05-26 01:24:00,45.9,41.3,30.26,East,89,0.0,0.0,84,0.00,,,0.00,Wunderground v.1.15,2013-05-26 06:24:00,
2013-05-26 01:25:00,45.9,41.3,30.26,East,89,0.0,0.0,84,0.00,,,0.00,Wunderground v.1.15,2013-05-26 06:25:00,
2013-05-26 01:26:00,45.8,41.2,30.26,East,89,0.0,0.0,84,0.00,,,0.00,Wunderground v.1.15,2013-05-26 06:26:00,
2013-05-26 01:27:00,45.8,41.2,30.26,East,89,0.0,0.0,84,0.00,,,0.00,Wunderground v.1.15,2013-05-26 06:27:00,
2013-05-26 01:28:00,45.8,41.2,30.26,East,89,0.0,0.0,84,0.00,,,0.00,Wunderground v.1.15,2013-05-26 06:28:00,
2013-05-26 01:31:00,45.6,41.0,30.26,East,89,0.0,0.0,84,0.00,,,0.00,Wunderground v.1.15,2013-05-26 06:31:00,
2013-05-26 01:32:00,45.6,41.0,30.26,East,89,0.0,0.0,84,0.00,,,0.00,Wunderground v.1.15,2013-05-26 06:32:00,
2013-05-26 01:33:00,45.5,40.9,30.26,East,89,0.0,0.0,84,0.00,,,0.00,Wunderground v.1.15,2013-05-26 06:33:00,
2013-05-26 01:34:00,45.5,40.9,30.26,East,89,0.0,0.0,84,0.00,,,0.00,Wunderground v.1.15,2013-05-26 06:34:00,
2013-05-26 01:37:00,45.4,41.2,30.26,East,89,0.0,0.0,85,0.00,,,0.00,Wunderground v.1.15,2013-05-26 06:37:00,
2013-05-26 01:39:00,45.3,41.1,30.26,East,89,0.0,0.0,85,0.00,,,0.00,Wunderground v.1.15,2013-05-26 06:39:00,
2013-05-26 01:40:00,45.3,41.1,30.25,East,89,0.0,0.0,85,0.00,,,0.00,Wunderground v.1.15,2013-05-26 06:40:00,
2013-05-26 01:41:00,45.3,41.1,30.26,East,89,0.0,0.0,85,0.00,,,0.00,Wunderground v.1.15,2013-05-26 06:41:00,
2013-05-26 01:44:00,45.2,41.3,30.25,East,89,0.0,0.0,86,0.00,,,0.00,Wunderground v.1.15,2013-05-26 06:44:00,
2013-05-26 01:45:00,45.2,41.3,30.26,East,89,0.0,0.0,86,0.00,,,0.00,Wunderground v.1.15,2013-05-26 06:45:00,
2013-05-26 01:46:00,45.2,41.3,30.25,East,89,0.0,0.0,86,0.00,,,0.00,Wunderground v.1.15,2013-05-26 06:46:00,
2013-05-26 01:47:00,45.2,41.3,30.25,East,89,0.0,2.0,86,0.00,,,0.00,Wunderground v.1.15,2013-05-26 06:47:00,
2013-05-26 01:49:00,45.3,41.4,30.25,East,89,0.0,2.0,86,0.00,,,0.00,Wunderground v.1.15,2013-05-26 06:49:00,
2013-05-26 01:52:00,45.4,41.5,30.25,East,89,1.0,1.0,86,0.00,,,0.00,Wunderground v.1.15,2013-05-26 06:52:00,
2013-05-26 01:55:00,45.4,41.5,30.25,East,89,1.0,2.0,86,0.00,,,0.00,Wunderground v.1.15,2013-05-26 06:55:00,
2013-05-26 01:56:00,45.5,41.6,30.25,East,89,1.0,2.0,86,0.00,,,0.00,Wunderground v.1.15,2013-05-26 06:56:00,
2013-05-26 01:57:00,45.5,41.6,30.25,East,89,1.0,2.0,86,0.00,,,0.00,Wunderground v.1.15,2013-05-26 06:57:00,
2013-05-26 01:58:00,45.5,41.6,30.24,East,89,1.0,2.0,86,0.00,,,0.00,Wunderground v.1.15,2013-05-26 06:58:00,
2013-05-26 02:00:00,45.5,41.6,30.25,East,89,1.0,1.0,86,0.00,,,0.00,Wunderground v.1.15,2013-05-26 07:00:00,
2013-05-26 02:01:00,45.5,41.6,30.25,East,89,0.0,1.0,86,0.00,,,0.00,Wunderground v.1.15,2013-05-26 07:01:00,
2013-05-26 02:02:00,45.5,41.6,30.25,East,89,0.0,1.0,86,0.00,,,0.00,Wunderground v.1.15,2013-05-26 07:02:00,
2013-05-26 02:03:00,45.5,41.6,30.25,East,89,0.0,1.0,86,0.00,,,0.00,Wunderground v.1.15,2013-05-26 07:03:00,
2013-05-26 02:06:00,45.4,41.5,30.25,East,88,0.0,4.0,86,0.00,,,0.00,Wunderground v.1.15,2013-05-26 07:06:00,
2013-05-26 02:08:00,45.5,41.6,30.25,East,88,0.0,4.0,86,0.00,,,0.00,Wunderground v.1.15,2013-05-26 07:08:00,
2013-05-26 02:09:00,45.5,41.6,30.25,East,88,0.0,4.0,86,0.00,,,0.00,Wunderground v.1.15,2013-05-26 07:09:00,
2013-05-26 02:10:00,45.5,41.6,30.25,East,88,0.0,0.0,86,0.00,,,0.00,Wunderground v.1.15,2013-05-26 07:10:00,
2013-05-26 02:13:00,45.5,41.6,30.25,East,88,0.0,0.0,86,0.00,,,0.00,Wunderground v.1.15,2013-05-26 07:13:00,
2013-05-26 02:14:00,45.5,41.6,30.25,East,88,0.0,0.0,86,0.00,,,0.00,Wunderground v.1.15,2013-05-26 07:14:00,
2013-05-26 02:16:00,45.5,41.6,30.25,East,88,0.0,0.0,86,0.00,,,0.00,Wunderground v.1.15,2013-05-26 07:16:00,
2013-05-26 02:17:00,45.5,41.6,30.25,East,88,0.0,0.0,86,0.00,,,0.00,Wunderground v.1.15,2013-05-26 07:17:00,
2013-05-26 02:18:00,45.5,41.6,30.25,East,88,0.0,0.0,86,0.00,,,0.00,Wunderground v.1.15,2013-05-26 07:18:00,
2013-05-26 02:19:00,45.5,41.6,30.25,East,88,0.0,0.0,86,0.00,,,0.00,Wunderground v.1.15,2013-05-26 07:19:00,
2013-05-26 02:20:00,45.5,41.6,30.25,East,88,0.0,0.0,86,0.00,,,0.00,Wunderground v.1.15,2013-05-26 07:20:00,
2013-05-26 02:22:00,45.5,41.9,30.25,East,82,1.0,2.0,87,0.00,,,0.00,Wunderground v.1.15,2013-05-26 07:22:00,
2013-05-26 02:23:00,45.5,41.9,30.25,East,82,1.0,2.0,87,0.00,,,0.00,Wunderground v.1.15,2013-05-26 07:23:00,
2013-05-26 02:24:00,45.5,41.6,30.25,East,82,1.0,2.0,86,0.00,,,0.00,Wunderground v.1.15,2013-05-26 07:24:00,
2013-05-26 02:27:00,45.6,42.0,30.25,East,82,1.0,2.0,87,0.00,,,0.00,Wunderground v.1.15,2013-05-26 07:27:00,
2013-05-26 02:28:00,45.6,42.0,30.25,East,82,1.0,2.0,87,0.00,,,0.00,Wunderground v.1.15,2013-05-26 07:28:00,
2013-05-26 02:29:00,45.6,42.0,30.25,East,82,1.0,2.0,87,0.00,,,0.00,Wunderground v.1.15,2013-05-26 07:29:00,
2013-05-26 02:32:00,45.6,41.7,30.25,East,82,0.0,3.0,86,0.00,,,0.00,Wunderground v.1.15,2013-05-26 07:32:00,
2013-05-26 02:33:00,45.6,41.7,30.25,East,82,0.0,3.0,86,0.00,,,0.00,Wunderground v.1.15,2013-05-26 07:33:00,
2013-05-26 02:34:00,45.5,41.6,30.25,East,82,0.0,3.0,86,0.00,,,0.00,Wunderground v.1.15,2013-05-26 07:34:00,
2013-05-26 02:35:00,45.5,41.6,30.25,East,82,0.0,3.0,86,0.00,,,0.00,Wunderground v.1.15,2013-05-26 07:35:00,
2013-05-26 02:38:00,45.5,41.6,30.25,East,82,0.0,3.0,86,0.00,,,0.00,Wunderground v.1.15,2013-05-26 07:38:00,
2013-05-26 02:39:00,45.5,41.6,30.25,East,82,0.0,3.0,86,0.00,,,0.00,Wunderground v.1.15,2013-05-26 07:39:00,
2013-05-26 02:40:00,45.5,41.6,30.25,East,82,0.0,0.0,86,0.00,,,0.00,Wunderground v.1.15,2013-05-26 07:40:00,
2013-05-26 02:42:00,45.5,41.6,30.25,East,82,0.0,0.0,86,0.00,,,0.00,Wunderground v.1.15,2013-05-26 07:42:00,
2013-05-26 02:43:00,45.5,41.6,30.25,East,82,0.0,0.0,86,0.00,,,0.00,Wunderground v.1.15,2013-05-26 07:43:00,
2013-05-26 02:46:00,45.4,41.5,30.25,East,82,0.0,0.0,86,0.00,,,0.00,Wunderground v.1.15,2013-05-26 07:46:00,
2013-05-26 02:47:00,45.4,41.5,30.25,East,82,0.0,0.0,86,0.00,,,0.00,Wunderground v.1.15,2013-05-26 07:47:00,
2013-05-26 02:49:00,45.3,41.4,30.25,East,82,0.0,2.0,86,0.00,,,0.00,Wunderground v.1.15,2013-05-26 07:49:00,
2013-05-26 02:53:00,45.3,41.4,30.25,East,82,1.0,3.0,86,0.00,,,0.00,Wunderground v.1.15,2013-05-26 07:53:00,
2013-05-26 02:54:00,45.3,41.4,30.25,East,82,1.0,3.0,86,0.00,,,0.00,Wunderground v.1.15,2013-05-26 07:54:00,
2013-05-26 02:55:00,45.3,41.4,30.25,East,82,1.0,3.0,86,0.00,,,0.00,Wunderground v.1.15,2013-05-26 07:55:00,
2013-05-26 02:56:00,45.3,41.4,30.25,East,82,1.0,3.0,86,0.00,,,0.00,Wunderground v.1.15,2013-05-26 07:56:00,
2013-05-26 03:00:00,45.3,41.4,30.25,East,82,1.0,1.0,86,0.00,,,0.00,Wunderground v.1.15,2013-05-26 08:00:00,
2013-05-26 03:02:00,45.3,41.4,30.24,East,82,1.0,1.0,86,0.00,,,0.00,Wunderground v.1.15,2013-05-26 08:02:00,
2013-05-26 03:03:00,45.2,41.3,30.25,East,82,1.0,2.0,86,0.00,,,0.00,Wunderground v.1.15,2013-05-26 08:03:00,
2013-05-26 03:05:00,45.2,41.3,30.24,East,82,1.0,2.0,86,0.00,,,0.00,Wunderground v.1.15,2013-05-26 08:05:00,
2013-05-26 03:08:00,45.2,41.3,30.25,East,83,1.0,2.0,86,0.00,,,0.00,Wunderground v.1.15,2013-05-26 08:08:00,
2013-05-26 03:11:00,45.1,41.2,30.25,East,84,1.0,1.0,86,0.00,,,0.00,Wunderground v.1.15,2013-05-26 08:11:00,
2013-05-26 03:12:00,45.1,41.2,30.25,East,84,1.0,1.0,86,0.00,,,0.00,Wunderground v.1.15,2013-05-26 08:12:00,
2013-05-26 03:15:00,45.1,41.2,30.25,East,86,1.0,2.0,86,0.00,,,0.00,Wunderground v.1.15,2013-05-26 08:15:00,
2013-05-26 03:17:00,45.1,41.2,30.25,East,86,1.0,2.0,86,0.00,,,0.00,Wunderground v.1.15,2013-05-26 08:17:00,
2013-05-26 03:18:00,45.1,41.2,30.25,East,86,1.0,2.0,86,0.00,,,0.00,Wunderground v.1.15,2013-05-26 08:18:00,
2013-05-26 03:20:00,45.0,41.1,30.25,East,86,1.0,3.0,86,0.00,,,0.00,Wunderground v.1.15,2013-05-26 08:20:00,
2013-05-26 03:21:00,45.0,41.1,30.25,East,86,1.0,3.0,86,0.00,,,0.00,Wunderground v.1.15,2013-05-26 08:21:00,
2013-05-26 03:25:00,45.0,41.1,30.25,East,90,2.0,5.0,86,0.00,,,0.00,Wunderground v.1.15,2013-05-26 08:25:00,
2013-05-26 03:26:00,45.0,41.1,30.25,East,90,2.0,5.0,86,0.00,,,0.00,Wunderground v.1.15,2013-05-26 08:26:00,
2013-05-26 03:29:00,45.0,40.8,30.25,East,91,2.0,5.0,85,0.00,,,0.00,Wunderground v.1.15,2013-05-26 08:29:00,
2013-05-26 03:31:00,45.0,40.8,30.25,East,91,2.0,2.0,85,0.00,,,0.00,Wunderground v.1.15,2013-05-26 08:31:00,
2013-05-26 03:32:00,45.0,40.8,30.25,East,91,2.0,2.0,85,0.00,,,0.00,Wunderground v.1.15,2013-05-26 08:32:00,
2013-05-26 03:33:00,44.9,40.7,30.25,East,92,1.0,2.0,85,0.00,,,0.00,Wunderground v.1.15,2013-05-26 08:33:00,
2013-05-26 03:36:00,44.9,40.4,30.25,ESE,122,1.0,4.0,84,0.00,,,0.00,Wunderground v.1.15,2013-05-26 08:36:00,
2013-05-26 03:37:00,44.9,40.4,30.25,ESE,116,1.0,4.0,84,0.00,,,0.00,Wunderground v.1.15,2013-05-26 08:37:00,
2013-05-26 03:40:00,44.9,40.4,30.24,ESE,113,1.0,1.0,84,0.00,,,0.00,Wunderground v.1.15,2013-05-26 08:40:00,
2013-05-26 03:42:00,44.9,40.4,30.24,ESE,111,2.0,5.0,84,0.00,,,0.00,Wunderground v.1.15,2013-05-26 08:42:00,
2013-05-26 03:44:00,44.9,40.4,30.24,ESE,110,2.0,5.0,84,0.00,,,0.00,Wunderground v.1.15,2013-05-26 08:44:00,
2013-05-26 03:45:00,44.9,40.0,30.24,ESE,110,2.0,5.0,83,0.00,,,0.00,Wunderground v.1.15,2013-05-26 08:45:00,
2013-05-26 03:46:00,44.9,40.0,30.24,ESE,105,2.0,5.0,83,0.00,,,0.00,Wunderground v.1.15,2013-05-26 08:46:00,
2013-05-26 03:50:00,44.9,39.7,30.24,ESE,105,2.0,2.0,82,0.00,,,0.00,Wunderground v.1.15,2013-05-26 08:50:00,
2013-05-26 03:51:00,44.9,39.7,30.24,ESE,105,2.0,2.0,82,0.00,,,0.00,Wunderground v.1.15,2013-05-26 08:51:00,
2013-05-26 03:53:00,44.9,39.7,30.24,ESE,105,2.0,2.0,82,0.00,,,0.00,Wunderground v.1.15,2013-05-26 08:53:00,
2013-05-26 03:54:00,44.9,39.7,30.24,ESE,105,2.0,3.0,82,0.00,,,0.00,Wunderground v.1.15,2013-05-26 08:54:00,
2013-05-26 03:55:00,44.9,39.7,30.24,ESE,105,2.0,3.0,82,0.00,,,0.00,Wunderground v.1.15,2013-05-26 08:55:00,
2013-05-26 03:57:00,44.9,39.4,30.24,ESE,103,2.0,3.0,81,0.00,,,0.00,Wunderground v.1.15,2013-05-26 08:57:00,
2013-05-26 04:00:00,44.9,39.4,30.25,ESE,104,1.0,1.0,81,0.00,,,0.00,Wunderground v.1.15,2013-05-26 09:00:00,
2013-05-26 04:01:00,44.9,39.4,30.25,ESE,104,1.0,4.0,81,0.00,,,0.00,Wunderground v.1.15,2013-05-26 09:01:00,
2013-05-26 04:02:00,44.9,39.4,30.25,ESE,104,1.0,4.0,81,0.00,,,0.00,Wunderground v.1.15,2013-05-26 09:02:00,
2013-05-26 04:03:00,44.9,39.4,30.25,ESE,104,1.0,4.0,81,0.00,,,0.00,Wunderground v.1.15,2013-05-26 09:03:00,
2013-05-26 04:04:00,44.9,39.4,30.25,ESE,103,2.0,5.0,81,0.00,,,0.00,Wunderground v.1.15,2013-05-26 09:04:00,
2013-05-26 04:08:00,44.9,39.1,30.25,ESE,103,2.0,5.0,80,0.00,,,0.00,Wunderground v.1.15,2013-05-26 09:08:00,
2013-05-26 04:09:00,44.9,39.1,30.25,ESE,103,1.0,5.0,80,0.00,,,0.00,Wunderground v.1.15,2013-05-26 09:09:00,
2013-05-26 04:11:00,44.9,39.1,30.25,ESE,102,2.0,2.0,80,0.00,,,0.00,Wunderground v.1.15,2013-05-26 09:11:00,
2013-05-26 04:12:00,44.9,39.1,30.25,ESE,103,2.0,2.0,80,0.00,,,0.00,Wunderground v.1.15,2013-05-26 09:12:00,
2013-05-26 04:16:00,44.8,39.0,30.26,ESE,103,1.0,2.0,80,0.00,,,0.00,Wunderground v.1.15,2013-05-26 09:16:00,
2013-05-26 04:17:00,44.8,39.0,30.26,ESE,103,1.0,2.0,80,0.00,,,0.00,Wunderground v.1.15,2013-05-26 09:17:00,
2013-05-26 04:19:00,44.7,38.9,30.25,ESE,103,1.0,2.0,80,0.00,,,0.00,Wunderground v.1.15,2013-05-26 09:19:00,
2013-05-26 04:20:00,44.7,38.9,30.25,ESE,103,1.0,2.0,80,0.00,,,0.00,Wunderground v.1.15,2013-05-26 09:20:00,
2013-05-26 04:23:00,44.7,38.9,30.26,ESE,103,1.0,2.0,80,0.00,,,0.00,Wunderground v.1.15,2013-05-26 09:23:00,
2013-05-26 04:25:00,44.7,38.9,30.26,ESE,103,1.0,2.0,80,0.00,,,0.00,Wunderground v.1.15,2013-05-26 09:25:00,
2013-05-26 04:26:00,44.6,38.8,30.26,ESE,103,1.0,2.0,80,0.00,,,0.00,Wunderground v.1.15,2013-05-26 09:26:00,
2013-05-26 04:29:00,44.6,38.8,30.26,ESE,103,1.0,2.0,80,0.00,,,0.00,Wunderground v.1.15,2013-05-26 09:29:00,
2013-05-26 04:33:00,44.5,39.0,30.26,ESE,102,1.0,2.0,81,0.00,,,0.00,Wunderground v.1.15,2013-05-26 09:33:00,
2013-05-26 04:34:00,44.5,38.7,30.26,ESE,102,1.0,2.0,80,0.00,,,0.00,Wunderground v.1.15,2013-05-26 09:34:00,
2013-05-26 04:36:00,44.5,38.7,30.26,ESE,103,1.0,4.0,80,0.00,,,0.00,Wunderground v.1.15,2013-05-26 09:36:00,
2013-05-26 04:37:00,44.5,38.7,30.25,ESE,103,1.0,4.0,80,0.00,,,0.00,Wunderground v.1.15,2013-05-26 09:37:00,
2013-05-26 04:38:00,44.5,39.0,30.25,ESE,103,1.0,4.0,81,0.00,,,0.00,Wunderground v.1.15,2013-05-26 09:38:00,
2013-05-26 04:39:00,44.4,38.6,30.25,ESE,103,1.0,4.0,80,0.00,,,0.00,Wunderground v.1.15,2013-05-26 09:39:00,
2013-05-26 04:43:00,44.4,38.6,30.25,East,101,1.0,2.0,80,0.00,,,0.00,Wunderground v.1.15,2013-05-26 09:43:00,
2013-05-26 04:44:00,44.3,38.5,30.25,East,101,2.0,2.0,80,0.00,,,0.00,Wunderground v.1.15,2013-05-26 09:44:00,
2013-05-26 04:47:00,44.3,38.5,30.25,East,92,2.0,6.0,80,0.00,,,0.00,Wunderground v.1.15,2013-05-26 09:47:00,
2013-05-26 04:48:00,44.3,38.5,30.25,East,90,2.0,6.0,80,0.00,,,0.00,Wunderground v.1.15,2013-05-26 09:48:00,
2013-05-26 04:49:00,44.3,38.5,30.25,East,90,2.0,6.0,80,0.00,,,0.00,Wunderground v.1.15,2013-05-26 09:49:00,
2013-05-26 04:50:00,44.3,38.5,30.25,East,86,2.0,3.0,80,0.00,,,0.00,Wunderground v.1.15,2013-05-26 09:50:00,
2013-05-26 04:54:00,44.3,38.2,30.25,East,87,2.0,3.0,79,0.00,,,0.00,Wunderground v.1.15,2013-05-26 09:54:00,
2013-05-26 04:55:00,44.3,38.2,30.24,East,87,2.0,3.0,79,0.00,,,0.00,Wunderground v.1.15,2013-05-26 09:55:00,
2013-05-26 04:56:00,44.3,38.2,30.25,ENE,66,2.0,3.0,79,0.00,,,0.00,Wunderground v.1.15,2013-05-26 09:56:00,
2013-05-26 04:59:00,44.4,38.0,30.25,ENE,66,1.0,3.0,78,0.00,,,0.00,Wunderground v.1.15,2013-05-26 09:59:00,
2013-05-26 05:00:00,44.4,38.0,30.25,ENE,67,1.0,3.0,78,0.00,,,0.00,Wunderground v.1.15,2013-05-26 10:00:00,
2013-05-26 05:01:00,44.4,38.0,30.25,ENE,67,1.0,3.0,78,0.00,,,0.00,Wunderground v.1.15,2013-05-26 10:01:00,
2013-05-26 05:02:00,44.5,38.1,30.25,East,82,1.0,4.0,78,0.00,,,0.00,Wunderground v.1.15,2013-05-26 10:02:00,
2013-05-26 05:05:00,44.6,37.8,30.25,East,85,2.0,4.0,77,0.00,,,0.00,Wunderground v.1.15,2013-05-26 10:05:00,
2013-05-26 05:06:00,44.6,37.8,30.25,East,86,2.0,4.0,77,0.00,,,0.00,Wunderground v.1.15,2013-05-26 10:06:00,
2013-05-26 05:07:00,44.6,37.8,30.25,East,89,2.0,5.0,77,0.00,,,0.00,Wunderground v.1.15,2013-05-26 10:07:00,
2013-05-26 05:08:00,44.6,37.8,30.25,East,90,2.0,5.0,77,0.00,,,0.00,Wunderground v.1.15,2013-05-26 10:08:00,
2013-05-26 05:09:00,44.6,37.8,30.25,East,88,2.0,5.0,77,0.00,,,0.00,Wunderground v.1.15,2013-05-26 10:09:00,
2013-05-26 05:12:00,44.6,37.8,30.25,East,89,2.0,3.0,77,0.00,,,0.00,Wunderground v.1.15,2013-05-26 10:12:00,
2013-05-26 05:13:00,44.6,37.8,30.25,East,89,2.0,3.0,77,0.00,,,0.00,Wunderground v.1.15,2013-05-26 10:13:00,
2013-05-26 05:14:00,44.7,37.9,30.25,East,89,2.0,3.0,77,0.00,,,0.00,Wunderground v.1.15,2013-05-26 10:14:00,
2013-05-26 05:15:00,44.7,37.9,30.25,East,89,2.0,3.0,77,0.00,,,0.00,Wunderground v.1.15,2013-05-26 10:15:00,
2013-05-26 05:19:00,44.6,37.8,30.25,East,91,2.0,3.0,77,0.00,,,0.00,Wunderground v.1.15,2013-05-26 10:19:00,
2013-05-26 05:20:00,44.6,37.8,30.24,East,91,2.0,3.0,77,0.00,,,0.00,Wunderground v.1.15,2013-05-26 10:20:00,
2013-05-26 05:22:00,44.6,37.8,30.25,ENE,65,2.0,3.0,77,0.00,,,0.00,Wunderground v.1.15,2013-05-26 10:22:00,
2013-05-26 05:23:00,44.7,37.9,30.25,ENE,65,2.0,3.0,77,0.00,,,0.00,Wunderground v.1.15,2013-05-26 10:23:00,
2013-05-26 05:25:00,44.7,37.9,30.25,ENE,65,2.0,3.0,77,0.00,,,0.00,Wunderground v.1.15,2013-05-26 10:25:00,
2013-05-26 05:29:00,44.6,37.8,30.24,ENE,67,1.0,4.0,77,0.00,,,0.00,Wunderground v.1.15,2013-05-26 10:29:00,
2013-05-26 05:30:00,44.6,37.8,30.24,East,85,1.0,3.0,77,0.00,,,0.00,Wunderground v.1.15,2013-05-26 10:30:00,
2013-05-26 05:32:00,44.6,37.8,30.25,East,84,1.0,3.0,77,0.00,,,0.00,Wunderground v.1.15,2013-05-26 10:32:00,
2013-05-26 05:33:00,44.6,37.8,30.25,East,84,1.0,3.0,77,0.00,,,0.00,Wunderground v.1.15,2013-05-26 10:33:00,
2013-05-26 05:34:00,44.6,37.8,30.25,East,85,1.0,3.0,77,0.00,,,0.00,Wunderground v.1.15,2013-05-26 10:34:00,
2013-05-26 05:37:00,44.5,37.7,30.24,East,85,2.0,3.0,77,0.00,,,0.00,Wunderground v.1.15,2013-05-26 10:37:00,
2013-05-26 05:38:00,44.5,37.7,30.24,East,92,2.0,3.0,77,0.00,,,0.00,Wunderground v.1.15,2013-05-26 10:38:00,
2013-05-26 05:39:00,44.5,38.1,30.24,East,92,2.0,3.0,78,0.00,,,0.00,Wunderground v.1.15,2013-05-26 10:39:00,
2013-05-26 05:41:00,44.4,38.0,30.25,East,92,1.0,3.0,78,0.00,,,0.00,Wunderground v.1.15,2013-05-26 10:41:00,
2013-05-26 05:44:00,44.4,38.0,30.25,East,92,1.0,3.0,78,0.00,,,0.00,Wunderground v.1.15,2013-05-26 10:44:00,
2013-05-26 05:46:00,44.4,38.0,30.25,East,92,1.0,3.0,78,0.00,,,0.00,Wunderground v.1.15,2013-05-26 10:46:00,
2013-05-26 05:47:00,44.4,38.0,30.25,East,92,1.0,3.0,78,0.00,,,0.00,Wunderground v.1.15,2013-05-26 10:47:00,
2013-05-26 05:50:00,44.4,37.6,30.25,East,92,1.0,3.0,77,0.00,,,0.00,Wunderground v.1.15,2013-05-26 10:50:00,
2013-05-26 05:51:00,44.4,37.6,30.25,East,92,1.0,3.0,77,0.00,,,0.00,Wunderground v.1.15,2013-05-26 10:51:00,
2013-05-26 05:52:00,44.4,37.6,30.25,East,92,1.0,3.0,77,0.00,,,0.00,Wunderground v.1.15,2013-05-26 10:52:00,
2013-05-26 05:54:00,44.5,37.7,30.25,East,92,1.0,3.0,77,0.00,,,0.00,Wunderground v.1.15,2013-05-26 10:54:00,
2013-05-26 05:57:00,44.5,37.7,30.25,East,92,1.0,3.0,77,0.00,,,0.00,Wunderground v.1.15,2013-05-26 10:57:00,
2013-05-26 05:58:00,44.5,37.7,30.25,East,91,1.0,3.0,77,0.00,,,0.00,Wunderground v.1.15,2013-05-26 10:58:00,
2013-05-26 06:00:00,44.5,37.7,30.25,East,92,1.0,5.0,77,0.00,,,0.00,Wunderground v.1.15,2013-05-26 11:00:00,
2013-05-26 06:01:00,44.5,37.7,30.25,East,92,1.0,5.0,77,0.00,,,0.00,Wunderground v.1.15,2013-05-26 11:01:00,
2013-05-26 06:03:00,44.6,37.8,30.25,East,92,2.0,5.0,77,0.00,,,0.00,Wunderground v.1.15,2013-05-26 11:03:00,
2013-05-26 06:05:00,44.6,37.8,30.25,East,92,2.0,5.0,77,0.00,,,0.00,Wunderground v.1.15,2013-05-26 11:05:00,
2013-05-26 06:07:00,44.6,37.8,30.25,East,92,1.0,5.0,77,0.00,,,0.00,Wunderground v.1.15,2013-05-26 11:07:00,
2013-05-26 06:08:00,44.7,37.9,30.25,East,92,1.0,5.0,77,0.00,,,0.00,Wunderground v.1.15,2013-05-26 11:08:00,
2013-05-26 06:09:00,44.7,37.9,30.26,East,92,1.0,5.0,77,0.00,,,0.00,Wunderground v.1.15,2013-05-26 11:09:00,
2013-05-26 06:14:00,44.8,37.7,30.25,East,92,1.0,4.0,76,0.00,,,0.00,Wunderground v.1.15,2013-05-26 11:14:00,
2013-05-26 06:15:00,44.9,37.8,30.26,East,92,1.0,4.0,76,0.00,,,0.00,Wunderground v.1.15,2013-05-26 11:15:00,
2013-05-26 06:16:00,44.9,37.8,30.26,East,92,1.0,4.0,76,0.00,,,0.00,Wunderground v.1.15,2013-05-26 11:16:00,
2013-05-26 06:17:00,45.0,38.2,30.26,East,92,1.0,4.0,77,0.00,,,0.00,Wunderground v.1.15,2013-05-26 11:17:00,
2013-05-26 06:19:00,45.0,37.9,30.26,East,91,1.0,4.0,76,0.00,,,0.00,Wunderground v.1.15,2013-05-26 11:19:00,
2013-05-26 06:23:00,45.2,38.1,30.26,East,92,1.0,2.0,76,0.00,,,0.00,Wunderground v.1.15,2013-05-26 11:23:00,
2013-05-26 06:25:00,45.2,38.4,30.25,East,96,1.0,2.0,77,0.00,,,0.00,Wunderground v.1.15,2013-05-26 11:25:00,
2013-05-26 06:27:00,45.3,38.5,30.25,East,96,1.0,3.0,77,0.00,,,0.00,Wunderground v.1.15,2013-05-26 11:27:00,
2013-05-26 06:29:00,45.4,38.3,30.26,East,96,1.0,3.0,76,0.00,,,0.00,Wunderground v.1.15,2013-05-26 11:29:00,
2013-05-26 06:31:00,45.5,38.0,30.26,East,98,1.0,3.0,75,0.00,,,0.00,Wunderground v.1.15,2013-05-26 11:31:00,
2013-05-26 06:34:00,45.6,38.1,30.26,East,101,1.0,3.0,75,0.00,,,0.00,Wunderground v.1.15,2013-05-26 11:34:00,
2013-05-26 06:35:00,45.7,38.2,30.26,East,101,1.0,3.0,75,0.00,,,0.00,Wunderground v.1.15,2013-05-26 11:35:00,
2013-05-26 06:37:00,45.8,38.3,30.26,East,101,1.0,3.0,75,0.00,,,0.00,Wunderground v.1.15,2013-05-26 11:37:00,
2013-05-26 06:39:00,45.9,38.4,30.26,East,101,1.0,3.0,75,0.00,,,0.00,Wunderground v.1.15,2013-05-26 11:39:00,
2013-05-26 06:40:00,46.0,38.5,30.25,East,101,1.0,2.0,75,0.00,,,0.00,Wunderground v.1.15,2013-05-26 11:40:00,
2013-05-26 06:42:00,46.1,38.6,30.25,East,100,1.0,3.0,75,0.00,,,0.00,Wunderground v.1.15,2013-05-26 11:42:00,
2013-05-26 06:45:00,46.3,38.5,30.26,East,100,1.0,3.0,74,0.00,,,0.00,Wunderground v.1.15,2013-05-26 11:45:00,
2013-05-26 06:46:00,46.4,38.6,30.26,East,100,1.0,3.0,74,0.00,,,0.00,Wunderground v.1.15,2013-05-26 11:46:00,
2013-05-26 06:48:00,46.5,38.7,30.26,East,101,2.0,4.0,74,0.00,,,0.00,Wunderground v.1.15,2013-05-26 11:48:00,
2013-05-26 06:49:00,46.5,38.7,30.26,East,101,2.0,4.0,74,0.00,,,0.00,Wunderground v.1.15,2013-05-26 11:49:00,
2013-05-26 06:51:00,46.7,38.9,30.25,East,101,2.0,2.0,74,0.00,,,0.00,Wunderground v.1.15,2013-05-26 11:51:00,
2013-05-26 06:53:00,46.8,38.9,30.25,East,101,2.0,2.0,74,0.00,,,0.00,Wunderground v.1.15,2013-05-26 11:53:00,
2013-05-26 06:55:00,46.9,39.0,30.26,East,101,2.0,2.0,74,0.00,,,0.00,Wunderground v.1.15,2013-05-26 11:55:00,
2013-05-26 06:57:00,47.0,38.8,30.26,East,100,2.0,5.0,73,0.00,,,0.00,Wunderground v.1.15,2013-05-26 11:57:00,
2013-05-26 07:02:00,47.3,39.1,30.25,ESE,112,2.0,2.0,73,0.00,,,0.00,Wunderground v.1.15,2013-05-26 12:02:00,
2013-05-26 07:03:00,47.3,39.1,30.25,ESE,112,2.0,2.0,73,0.00,,,0.00,Wunderground v.1.15,2013-05-26 12:03:00,
2013-05-26 07:04:00,47.3,39.1,30.25,ESE,112,2.0,2.0,73,0.00,,,0.00,Wunderground v.1.15,2013-05-26 12:04:00,
2013-05-26 07:05:00,47.4,39.2,30.25,ESE,113,2.0,2.0,73,0.00,,,0.00,Wunderground v.1.15,2013-05-26 12:05:00,
2013-05-26 07:07:00,47.5,38.6,30.25,ESE,104,3.0,4.0,71,0.00,,,0.00,Wunderground v.1.15,2013-05-26 12:07:00,
2013-05-26 07:10:00,47.7,38.8,30.26,ESE,105,3.0,3.0,71,0.00,,,0.00,Wunderground v.1.15,2013-05-26 12:10:00,
2013-05-26 07:12:00,47.8,38.8,30.26,ESE,122,3.0,3.0,71,0.00,,,0.00,Wunderground v.1.15,2013-05-26 12:12:00,
2013-05-26 07:13:00,47.9,38.9,30.26,ESE,110,3.0,4.0,71,0.00,,,0.00,Wunderground v.1.15,2013-05-26 12:13:00,
2013-05-26 07:14:00,48.0,39.0,30.26,ESE,118,3.0,4.0,71,0.00,,,0.00,Wunderground v.1.15,2013-05-26 12:14:00,
2013-05-26 07:15:00,48.0,39.0,30.26,ESE,119,3.0,4.0,71,0.00,,,0.00,Wunderground v.1.15,2013-05-26 12:15:00,
2013-05-26 07:18:00,48.2,39.2,30.27,SE,131,3.0,4.0,71,0.00,,,0.00,Wunderground v.1.15,2013-05-26 12:18:00,
2013-05-26 07:19:00,48.3,39.3,30.27,SE,133,3.0,4.0,71,0.00,,,0.00,Wunderground v.1.15,2013-05-26 12:19:00,
2013-05-26 07:20:00,48.4,39.4,30.27,SE,133,3.0,3.0,71,0.00,,,0.00,Wunderground v.1.15,2013-05-26 12:20:00,
2013-05-26 07:23:00,48.5,39.5,30.27,SE,128,3.0,3.0,71,0.00,,,0.00,Wunderground v.1.15,2013-05-26 12:23:00,
2013-05-26 07:24:00,48.6,39.6,30.27,SE,124,3.0,3.0,71,0.00,,,0.00,Wunderground v.1.15,2013-05-26 12:24:00,
2013-05-26 07:26:00,48.7,39.4,30.27,ESE,107,3.0,3.0,70,0.00,,,0.00,Wunderground v.1.15,2013-05-26 12:26:00,
2013-05-26 07:28:00,48.7,39.4,30.27,ESE,107,3.0,3.0,70,0.00,,,0.00,Wunderground v.1.15,2013-05-26 12:28:00,
2013-05-26 07:32:00,48.8,39.4,30.27,SSE,148,3.0,4.0,70,0.00,,,0.00,Wunderground v.1.15,2013-05-26 12:32:00,
2013-05-26 07:33:00,48.8,39.8,30.27,SSE,149,3.0,4.0,71,0.00,,,0.00,Wunderground v.1.15,2013-05-26 12:33:00,
2013-05-26 07:34:00,48.8,39.8,30.27,SE,136,3.0,5.0,71,0.00,,,0.00,Wunderground v.1.15,2013-05-26 12:34:00,
2013-05-26 07:37:00,48.9,39.5,30.27,East,91,3.0,5.0,70,0.00,,,0.00,Wunderground v.1.15,2013-05-26 12:37:00,
2013-05-26 07:39:00,48.9,39.5,30.26,East,94,3.0,5.0,70,0.00,,,0.00,Wunderground v.1.15,2013-05-26 12:39:00,
2013-05-26 07:40:00,48.9,39.5,30.26,East,94,3.0,3.0,70,0.00,,,0.00,Wunderground v.1.15,2013-05-26 12:40:00,
2013-05-26 07:41:00,49.0,40.0,30.26,East,101,3.0,8.0,71,0.00,,,0.00,Wunderground v.1.15,2013-05-26 12:41:00,
2013-05-26 07:45:00,49.0,40.0,30.26,ESE,113,3.0,8.0,71,0.00,,,0.00,Wunderground v.1.15,2013-05-26 12:45:00,
2013-05-26 07:46:00,49.0,40.0,30.26,East,80,3.0,8.0,71,0.00,,,0.00,Wunderground v.1.15,2013-05-26 12:46:00,
2013-05-26 07:48:00,49.1,40.1,30.26,East,100,3.0,8.0,71,0.00,,,0.00,Wunderground v.1.15,2013-05-26 12:48:00,
2013-05-26 07:50:00,49.1,40.1,30.26,East,99,3.0,5.0,71,0.00,,,0.00,Wunderground v.1.15,2013-05-26 12:50:00,
2013-05-26 07:51:00,49.1,40.1,30.26,ESE,104,3.0,5.0,71,0.00,,,0.00,Wunderground v.1.15,2013-05-26 12:51:00,
2013-05-26 07:55:00,49.2,40.2,30.26,SE,126,3.0,6.0,71,0.00,,,0.00,Wunderground v.1.15,2013-05-26 12:55:00,
2013-05-26 07:56:00,49.2,40.2,30.26,East,92,3.0,6.0,71,0.00,,,0.00,Wunderground v.1.15,2013-05-26 12:56:00,
2013-05-26 07:57:00,49.3,40.3,30.26,ESE,107,3.0,6.0,71,0.00,,,0.00,Wunderground v.1.15,2013-05-26 12:57:00,
2013-05-26 08:00:00,49.3,40.7,30.26,ESE,105,3.0,4.0,72,0.00,,,0.00,Wunderground v.1.15,2013-05-26 13:00:00,
2013-05-26 08:01:00,49.3,40.7,30.26,ESE,116,4.0,4.0,72,0.00,,,0.00,Wunderground v.1.15,2013-05-26 13:01:00,
2013-05-26 08:03:00,49.4,40.7,30.26,ESE,113,4.0,4.0,72,0.00,,,0.00,Wunderground v.1.15,2013-05-26 13:03:00,
2013-05-26 08:04:00,49.4,40.7,30.26,ESE,111,3.0,4.0,72,0.00,,,0.00,Wunderground v.1.15,2013-05-26 13:04:00,
2013-05-26 08:06:00,49.5,40.8,30.26,East,99,3.0,4.0,72,0.00,,,0.00,Wunderground v.1.15,2013-05-26 13:06:00,
2013-05-26 08:07:00,49.4,40.7,30.26,East,98,3.0,4.0,72,0.00,,,0.00,Wunderground v.1.15,2013-05-26 13:07:00,
2013-05-26 08:10:00,49.5,41.2,30.26,ESE,110,3.0,3.0,73,0.00,,,0.00,Wunderground v.1.15,2013-05-26 13:10:00,
2013-05-26 08:11:00,49.6,41.3,30.26,ESE,111,2.0,3.0,73,0.00,,,0.00,Wunderground v.1.15,2013-05-26 13:11:00,
2013-05-26 08:13:00,49.7,41.0,30.26,East,100,2.0,6.0,72,0.00,,,0.00,Wunderground v.1.15,2013-05-26 13:13:00,
2013-05-26 08:14:00,49.7,41.4,30.26,East,97,3.0,6.0,73,0.00,,,0.00,Wunderground v.1.15,2013-05-26 13:14:00,
2013-05-26 08:16:00,49.8,41.5,30.26,East,101,2.0,6.0,73,0.00,,,0.00,Wunderground v.1.15,2013-05-26 13:16:00,
2013-05-26 08:18:00,49.9,41.6,30.26,East,101,2.0,6.0,73,0.00,,,0.00,Wunderground v.1.15,2013-05-26 13:18:00,
2013-05-26 08:19:00,49.9,41.6,30.26,ESE,102,2.0,6.0,73,0.00,,,0.00,Wunderground v.1.15,2013-05-26 13:19:00,
2013-05-26 08:20:00,49.9,41.6,30.26,East,101,2.0,2.0,73,0.00,,,0.00,Wunderground v.1.15,2013-05-26 13:20:00,
2013-05-26 08:22:00,50.0,41.7,30.26,East,98,2.0,3.0,73,0.00,,,0.00,Wunderground v.1.15,2013-05-26 13:22:00,
2013-05-26 08:25:00,50.1,41.8,30.26,East,99,2.0,4.0,73,0.00,,,0.00,Wunderground v.1.15,2013-05-26 13:25:00,
2013-05-26 08:27:00,50.2,41.9,30.25,ESE,103,3.0,5.0,73,0.00,,,0.00,Wunderground v.1.15,2013-05-26 13:27:00,
2013-05-26 08:28:00,50.2,41.9,30.25,East,95,3.0,5.0,73,0.00,,,0.00,Wunderground v.1.15,2013-05-26 13:28:00,
2013-05-26 08:29:00,50.3,42.0,30.25,East,96,3.0,5.0,73,0.00,,,0.00,Wunderground v.1.15,2013-05-26 13:29:00,
2013-05-26 08:32:00,50.4,42.1,30.25,East,96,3.0,3.0,73,0.00,,,0.00,Wunderground v.1.15,2013-05-26 13:32:00,
2013-05-26 08:33:00,50.5,42.2,30.25,East,86,3.0,3.0,73,0.00,,,0.00,Wunderground v.1.15,2013-05-26 13:33:00,
2013-05-26 08:35:00,50.6,42.3,30.25,East,86,3.0,3.0,73,0.00,,,0.00,Wunderground v.1.15,2013-05-26 13:35:00,
2013-05-26 08:36:00,50.7,42.4,30.25,East,84,3.0,4.0,73,0.00,,,0.00,Wunderground v.1.15,2013-05-26 13:36:00,
2013-05-26 08:37:00,50.7,42.4,30.25,East,83,3.0,4.0,73,0.00,,,0.00,Wunderground v.1.15,2013-05-26 13:37:00,
2013-05-26 08:38:00,50.7,42.4,30.25,East,83,3.0,4.0,73,0.00,,,0.00,Wunderground v.1.15,2013-05-26 13:38:00,
2013-05-26 08:40:00,50.9,42.6,30.25,East,88,3.0,3.0,73,0.00,,,0.00,Wunderground v.1.15,2013-05-26 13:40:00,
2013-05-26 08:42:00,51.0,43.0,30.25,ESE,105,3.0,4.0,74,0.00,,,0.00,Wunderground v.1.15,2013-05-26 13:42:00,
2013-05-26 08:43:00,51.1,42.7,30.25,ESE,105,3.0,4.0,73,0.00,,,0.00,Wunderground v.1.15,2013-05-26 13:43:00,
2013-05-26 08:45:00,51.2,42.8,30.25,ESE,107,3.0,4.0,73,0.00,,,0.00,Wunderground v.1.15,2013-05-26 13:45:00,
2013-05-26 08:47:00,51.4,42.7,30.25,SSE,151,3.0,4.0,72,0.00,,,0.00,Wunderground v.1.15,2013-05-26 13:47:00,
2013-05-26 08:48:00,51.4,43.0,30.25,SE,145,3.0,4.0,73,0.00,,,0.00,Wunderground v.1.15,2013-05-26 13:48:00,
2013-05-26 08:50:00,51.5,42.8,30.25,ESE,122,3.0,3.0,72,0.00,,,0.00,Wunderground v.1.15,2013-05-26 13:50:00,
2013-05-26 08:53:00,51.8,43.1,30.25,East,96,2.0,4.0,72,0.00,,,0.00,Wunderground v.1.15,2013-05-26 13:53:00,
2013-05-26 08:54:00,51.9,43.5,30.25,East,94,2.0,4.0,73,0.00,,,0.00,Wunderground v.1.15,2013-05-26 13:54:00,
2013-05-26 08:55:00,52.0,43.3,30.25,ESE,121,3.0,4.0,72,0.00,,,0.00,Wunderground v.1.15,2013-05-26 13:55:00,
2013-05-26 08:56:00,52.1,43.3,30.25,East,91,3.0,4.0,72,0.00,,,0.00,Wunderground v.1.15,2013-05-26 13:56:00,
2013-05-26 08:58:00,52.3,43.5,30.26,East,92,2.0,4.0,72,0.00,,,0.00,Wunderground v.1.15,2013-05-26 13:58:00,
2013-05-26 08:59:00,52.4,43.6,30.25,East,91,2.0,4.0,72,0.00,,,0.00,Wunderground v.1.15,2013-05-26 13:59:00,
2013-05-26 09:00:00,52.4,44.0,30.26,East,92,2.0,3.0,73,0.00,,,0.00,Wunderground v.1.15,2013-05-26 14:00:00,
2013-05-26 09:01:00,52.6,44.2,30.25,East,96,2.0,3.0,73,0.00,,,0.00,Wunderground v.1.15,2013-05-26 14:01:00,
2013-05-26 09:04:00,52.8,44.0,30.25,East,98,2.0,4.0,72,0.00,,,0.00,Wunderground v.1.15,2013-05-26 14:04:00,
2013-05-26 09:07:00,53.0,44.2,30.26,East,98,1.0,4.0,72,0.00,,,0.00,Wunderground v.1.15,2013-05-26 14:07:00,
2013-05-26 09:10:00,53.3,44.9,30.25,East,98,1.0,1.0,73,0.00,,,0.00,Wunderground v.1.15,2013-05-26 14:10:00,
2013-05-26 09:11:00,53.5,44.7,30.25,East,98,1.0,3.0,72,0.00,,,0.00,Wunderground v.1.15,2013-05-26 14:11:00,
2013-05-26 09:12:00,53.5,44.7,30.25,East,98,1.0,3.0,72,0.00,,,0.00,Wunderground v.1.15,2013-05-26 14:12:00,
2013-05-26 09:13:00,53.6,44.4,30.26,East,99,1.0,3.0,71,0.00,,,0.00,Wunderground v.1.15,2013-05-26 14:13:00,
2013-05-26 09:14:00,53.7,44.5,30.26,ESE,103,1.0,3.0,71,0.00,,,0.00,Wunderground v.1.15,2013-05-26 14:14:00,
2013-05-26 09:17:00,53.9,44.3,30.26,ESE,112,2.0,4.0,70,0.00,,,0.00,Wunderground v.1.15,2013-05-26 14:17:00,
2013-05-26 09:19:00,54.0,44.4,30.26,SE,134,2.0,7.0,70,0.00,,,0.00,Wunderground v.1.15,2013-05-26 14:19:00,
2013-05-26 09:20:00,54.1,44.9,30.26,SSE,148,3.0,4.0,71,0.00,,,0.00,Wunderground v.1.15,2013-05-26 14:20:00,
2013-05-26 09:22:00,54.2,43.9,30.26,SSE,159,3.0,6.0,68,0.00,,,0.00,Wunderground v.1.15,2013-05-26 14:22:00,
2013-05-26 09:24:00,54.3,44.7,30.26,SSE,157,4.0,6.0,70,0.00,,,0.00,Wunderground v.1.15,2013-05-26 14:24:00,
2013-05-26 09:26:00,54.5,44.9,30.26,SSE,156,4.0,6.0,70,0.00,,,0.00,Wunderground v.1.15,2013-05-26 14:26:00,
2013-05-26 09:28:00,54.6,45.0,30.26,ESE,117,4.0,6.0,70,0.00,,,0.00,Wunderground v.1.15,2013-05-26 14:28:00,
2013-05-26 09:31:00,54.7,44.7,30.26,SE,136,4.0,4.0,69,0.00,,,0.00,Wunderground v.1.15,2013-05-26 14:31:00,
2013-05-26 09:34:00,54.8,44.4,30.26,SE,146,4.0,5.0,68,0.00,,,0.00,Wunderground v.1.15,2013-05-26 14:34:00,
2013-05-26 09:35:00,54.8,44.4,30.26,SSE,148,4.0,5.0,68,0.00,,,0.00,Wunderground v.1.15,2013-05-26 14:35:00,
2013-05-26 09:37:00,54.9,44.9,30.26,SSE,149,4.0,5.0,69,0.00,,,0.00,Wunderground v.1.15,2013-05-26 14:37:00,
2013-05-26 09:38:00,54.9,44.9,30.26,SE,137,4.0,9.0,69,0.00,,,0.00,Wunderground v.1.15,2013-05-26 14:38:00,
2013-05-26 09:42:00,55.0,45.0,30.26,SE,136,3.0,3.0,69,0.00,,,0.00,Wunderground v.1.15,2013-05-26 14:42:00,
2013-05-26 09:44:00,55.0,44.6,30.26,SE,131,3.0,3.0,68,0.00,,,0.00,Wunderground v.1.15,2013-05-26 14:44:00,
2013-05-26 09:47:00,55.1,44.7,30.26,South,172,3.0,6.0,68,0.00,,,0.00,Wunderground v.1.15,2013-05-26 14:47:00,
2013-05-26 09:50:00,55.1,44.7,30.26,SSE,162,4.0,4.0,68,0.00,,,0.00,Wunderground v.1.15,2013-05-26 14:50:00,
2013-05-26 09:51:00,55.2,44.8,30.26,SSE,168,4.0,4.0,68,0.00,,,0.00,Wunderground v.1.15,2013-05-26 14:51:00,
2013-05-26 09:52:00,55.2,44.4,30.26,SSE,168,4.0,4.0,67,0.00,,,0.00,Wunderground v.1.15,2013-05-26 14:52:00,
2013-05-26 09:55:00,55.3,44.1,30.26,SSE,155,4.0,4.0,66,0.00,,,0.00,Wunderground v.1.15,2013-05-26 14:55:00,
2013-05-26 09:57:00,55.4,44.2,30.26,SSE,163,4.0,6.0,66,0.00,,,0.00,Wunderground v.1.15,2013-05-26 14:57:00,
2013-05-26 09:58:00,55.4,43.8,30.26,SSE,164,4.0,6.0,65,0.00,,,0.00,Wunderground v.1.15,2013-05-26 14:58:00,
2013-05-26 10:01:00,55.6,44.0,30.26,South,184,4.0,5.0,65,0.00,,,0.00,Wunderground v.1.15,2013-05-26 15:01:00,
2013-05-26 10:02:00,55.6,44.0,30.25,SSE,153,5.0,5.0,65,0.00,,,0.00,Wunderground v.1.15,2013-05-26 15:02:00,
2013-05-26 10:03:00,55.7,43.3,30.25,SSE,153,5.0,5.0,63,0.00,,,0.00,Wunderground v.1.15,2013-05-26 15:03:00,
2013-05-26 10:08:00,55.7,44.5,30.25,SSE,167,4.0,6.0,66,0.00,,,0.00,Wunderground v.1.15,2013-05-26 15:08:00,
2013-05-26 10:09:00,55.8,44.6,30.25,SSE,167,4.0,6.0,66,0.00,,,0.00,Wunderground v.1.15,2013-05-26 15:09:00,
2013-05-26 10:12:00,55.8,44.2,30.25,ESE,120,4.0,7.0,65,0.00,,,0.00,Wunderground v.1.15,2013-05-26 15:12:00,
2013-05-26 10:14:00,55.8,44.2,30.24,ESE,123,3.0,7.0,65,0.00,,,0.00,Wunderground v.1.15,2013-05-26 15:14:00,
2013-05-26 10:15:00,55.8,44.6,30.25,ESE,123,3.0,7.0,66,0.00,,,0.00,Wunderground v.1.15,2013-05-26 15:15:00,
2013-05-26 10:16:00,55.8,44.2,30.25,SE,142,3.0,7.0,65,0.00,,,0.00,Wunderground v.1.15,2013-05-26 15:16:00,
2013-05-26 10:18:00,55.8,44.2,30.25,SE,127,3.0,7.0,65,0.00,,,0.00,Wunderground v.1.15,2013-05-26 15:18:00,
2013-05-26 10:19:00,55.8,44.2,30.25,SE,128,3.0,7.0,65,0.00,,,0.00,Wunderground v.1.15,2013-05-26 15:19:00,
2013-05-26 10:22:00,55.8,44.2,30.25,SE,125,3.0,5.0,65,0.00,,,0.00,Wunderground v.1.15,2013-05-26 15:22:00,
2013-05-26 10:23:00,55.7,43.7,30.25,SE,128,3.0,5.0,64,0.00,,,0.00,Wunderground v.1.15,2013-05-26 15:23:00,
2013-05-26 10:24:00,55.7,43.7,30.24,SE,129,3.0,5.0,64,0.00,,,0.00,Wunderground v.1.15,2013-05-26 15:24:00,
2013-05-26 10:27:00,55.7,43.3,30.24,SSE,153,4.0,5.0,63,0.00,,,0.00,Wunderground v.1.15,2013-05-26 15:27:00,
2013-05-26 10:29:00,55.7,43.3,30.24,SE,137,4.0,5.0,63,0.00,,,0.00,Wunderground v.1.15,2013-05-26 15:29:00,
2013-05-26 10:30:00,55.6,43.2,30.24,SE,141,4.0,5.0,63,0.00,,,0.00,Wunderground v.1.15,2013-05-26 15:30:00,
2013-05-26 10:34:00,55.6,43.6,30.24,SSE,166,4.0,5.0,64,0.00,,,0.00,Wunderground v.1.15,2013-05-26 15:34:00,
2013-05-26 10:35:00,55.6,43.6,30.24,SSE,162,4.0,5.0,64,0.00,,,0.00,Wunderground v.1.15,2013-05-26 15:35:00,
2013-05-26 10:38:00,55.7,42.9,30.24,ENE,78,4.0,7.0,62,0.00,,,0.00,Wunderground v.1.15,2013-05-26 15:38:00,
2013-05-26 10:39:00,55.6,42.4,30.24,SE,133,4.0,7.0,61,0.00,,,0.00,Wunderground v.1.15,2013-05-26 15:39:00,
2013-05-26 10:40:00,55.6,42.8,30.24,ESE,110,4.0,4.0,62,0.00,,,0.00,Wunderground v.1.15,2013-05-26 15:40:00,
2013-05-26 10:42:00,55.6,43.2,30.24,East,96,4.0,4.0,63,0.00,,,0.00,Wunderground v.1.15,2013-05-26 15:42:00,
2013-05-26 10:45:00,55.6,43.2,30.24,SE,134,4.0,4.0,63,0.00,,,0.00,Wunderground v.1.15,2013-05-26 15:45:00,
2013-05-26 10:46:00,55.5,43.1,30.24,SE,128,4.0,4.0,63,0.00,,,0.00,Wunderground v.1.15,2013-05-26 15:46:00,
2013-05-26 10:47:00,55.5,43.1,30.24,SE,128,4.0,4.0,63,0.00,,,0.00,Wunderground v.1.15,2013-05-26 15:47:00,
2013-05-26 10:50:00,55.4,43.0,30.25,SSE,153,4.0,4.0,63,0.00,,,0.00,Wunderground v.1.15,2013-05-26 15:50:00,
2013-05-26 10:52:00,55.4,43.0,30.25,SSE,163,4.0,4.0,63,0.00,,,0.00,Wunderground v.1.15,2013-05-26 15:52:00,
2013-05-26 10:53:00,55.3,43.3,30.25,SSE,164,4.0,4.0,64,0.00,,,0.00,Wunderground v.1.15,2013-05-26 15:53:00,
2013-05-26 10:56:00,55.3,44.1,30.25,SE,130,4.0,4.0,66,0.00,,,0.00,Wunderground v.1.15,2013-05-26 15:56:00,
2013-05-26 10:59:00,55.1,43.9,30.25,SSE,150,4.0,5.0,66,0.00,,,0.00,Wunderground v.1.15,2013-05-26 15:59:00,
2013-05-26 11:02:00,54.8,44.8,30.25,SE,129,4.0,4.0,69,0.00,,,0.00,Wunderground v.1.15,2013-05-26 16:02:00,
2013-05-26 11:03:00,54.7,45.1,30.25,SE,144,4.0,4.0,70,0.00,,,0.00,Wunderground v.1.15,2013-05-26 16:03:00,
2013-05-26 11:04:00,54.6,45.4,30.25,SE,135,4.0,4.0,71,0.00,,,0.00,Wunderground v.1.15,2013-05-26 16:04:00,
2013-05-26 11:06:00,54.2,45.4,30.25,SE,138,4.0,4.0,72,0.00,,,0.00,Wunderground v.1.15,2013-05-26 16:06:00,
2013-05-26 11:08:00,54.0,45.5,30.25,SE,138,3.0,4.0,73,0.00,,,0.00,Wunderground v.1.15,2013-05-26 16:08:00,
2013-05-26 11:10:00,53.8,45.7,30.25,SE,138,3.0,3.0,74,0.00,,,0.00,Wunderground v.1.15,2013-05-26 16:10:00,
2013-05-26 11:11:00,53.7,46.0,30.25,SE,135,2.0,4.0,75,0.00,,,0.00,Wunderground v.1.15,2013-05-26 16:11:00,
2013-05-26 11:14:00,53.4,46.4,30.25,SE,136,2.0,5.0,77,0.00,,,0.01,Wunderground v.1.15,2013-05-26 16:14:00,
2013-05-26 11:16:00,53.1,46.4,30.25,SE,135,2.0,5.0,78,0.00,,,0.01,Wunderground v.1.15,2013-05-26 16:16:00,
2013-05-26 11:17:00,53.0,46.3,30.25,SE,135,2.0,5.0,78,0.00,,,0.01,Wunderground v.1.15,2013-05-26 16:17:00,
2013-05-26 11:18:00,53.0,46.7,30.25,SE,135,2.0,5.0,79,0.00,,,0.01,Wunderground v.1.15,2013-05-26 16:18:00,
2013-05-26 11:21:00,52.8,47.1,30.25,SE,124,2.0,2.0,81,0.00,,,0.01,Wunderground v.1.15,2013-05-26 16:21:00,
2013-05-26 11:23:00,52.8,47.1,30.25,SE,124,2.0,2.0,81,0.00,,,0.01,Wunderground v.1.15,2013-05-26 16:23:00,
2013-05-26 11:24:00,52.8,47.1,30.25,SE,124,2.0,2.0,81,0.00,,,0.01,Wunderground v.1.15,2013-05-26 16:24:00,
2013-05-26 11:25:00,52.7,47.4,30.25,SE,124,2.0,2.0,82,0.00,,,0.01,Wunderground v.1.15,2013-05-26 16:25:00,
2013-05-26 11:26:00,52.7,47.4,30.25,SE,124,1.0,3.0,82,0.00,,,0.01,Wunderground v.1.15,2013-05-26 16:26:00,
2013-05-26 11:28:00,52.7,47.4,30.25,ESE,123,1.0,3.0,82,0.00,,,0.01,Wunderground v.1.15,2013-05-26 16:28:00,
2013-05-26 11:29:00,52.7,47.7,30.25,ESE,123,1.0,4.0,83,0.00,,,0.01,Wunderground v.1.15,2013-05-26 16:29:00,
2013-05-26 11:30:00,52.7,47.7,30.25,ESE,122,1.0,4.0,83,0.00,,,0.01,Wunderground v.1.15,2013-05-26 16:30:00,
2013-05-26 11:32:00,52.7,47.7,30.25,ESE,121,1.0,4.0,83,0.00,,,0.01,Wunderground v.1.15,2013-05-26 16:32:00,
2013-05-26 11:35:00,52.9,48.2,30.24,SE,135,2.0,5.0,84,0.00,,,0.01,Wunderground v.1.15,2013-05-26 16:35:00,
2013-05-26 11:36:00,52.9,48.2,30.24,ESE,112,2.0,5.0,84,0.00,,,0.01,Wunderground v.1.15,2013-05-26 16:36:00,
2013-05-26 11:37:00,53.0,48.3,30.24,ESE,113,2.0,5.0,84,0.00,,,0.01,Wunderground v.1.15,2013-05-26 16:37:00,
2013-05-26 11:38:00,53.0,48.3,30.24,ESE,111,2.0,5.0,84,0.00,,,0.01,Wunderground v.1.15,2013-05-26 16:38:00,
2013-05-26 11:40:00,53.0,48.0,30.24,ESE,107,3.0,3.0,83,0.00,,,0.01,Wunderground v.1.15,2013-05-26 16:40:00,
2013-05-26 11:45:00,53.3,48.3,30.23,ESE,118,3.0,5.0,83,0.00,,,0.01,Wunderground v.1.15,2013-05-26 16:45:00,
2013-05-26 11:46:00,53.4,48.4,30.23,East,96,4.0,5.0,83,0.00,,,0.01,Wunderground v.1.15,2013-05-26 16:46:00,
2013-05-26 11:48:00,53.5,48.5,30.23,ENE,77,4.0,7.0,83,0.00,,,0.01,Wunderground v.1.15,2013-05-26 16:48:00,
2013-05-26 11:50:00,53.7,48.3,30.23,ESE,106,4.0,4.0,82,0.00,,,0.01,Wunderground v.1.15,2013-05-26 16:50:00,
2013-05-26 11:51:00,53.8,48.4,30.23,SE,126,4.0,4.0,82,0.00,,,0.01,Wunderground v.1.15,2013-05-26 16:51:00,
2013-05-26 11:53:00,53.9,48.5,30.23,ESE,107,4.0,5.0,82,0.00,,,0.01,Wunderground v.1.15,2013-05-26 16:53:00,
2013-05-26 11:55:00,54.0,48.6,30.23,ENE,59,4.0,6.0,82,0.00,,,0.01,Wunderground v.1.15,2013-05-26 16:55:00,
2013-05-26 11:57:00,54.1,48.7,30.23,East,88,4.0,6.0,82,0.00,,,0.01,Wunderground v.1.15,2013-05-26 16:57:00,
2013-05-26 11:58:00,54.2,48.8,30.23,ESE,107,5.0,6.0,82,0.00,,,0.01,Wunderground v.1.15,2013-05-26 16:58:00,
2013-05-26 12:03:00,54.4,48.7,30.24,ESE,112,5.0,6.0,81,0.00,,,0.01,Wunderground v.1.15,2013-05-26 17:03:00,
2013-05-26 12:04:00,54.5,49.1,30.23,ESE,112,5.0,6.0,82,0.00,,,0.01,Wunderground v.1.15,2013-05-26 17:04:00,
2013-05-26 12:05:00,54.6,49.2,30.23,ESE,105,4.0,6.0,82,0.00,,,0.01,Wunderground v.1.15,2013-05-26 17:05:00,
2013-05-26 12:06:00,54.7,49.0,30.23,East,95,4.0,6.0,81,0.00,,,0.01,Wunderground v.1.15,2013-05-26 17:06:00,
2013-05-26 12:08:00,54.9,49.5,30.23,East,94,3.0,6.0,82,0.00,,,0.01,Wunderground v.1.15,2013-05-26 17:08:00,
2013-05-26 12:11:00,55.3,49.6,30.24,ESE,113,3.0,3.0,81,0.00,,,0.01,Wunderground v.1.15,2013-05-26 17:11:00,
2013-05-26 12:12:00,55.3,49.6,30.24,ESE,113,2.0,3.0,81,0.00,,,0.01,Wunderground v.1.15,2013-05-26 17:12:00,
2013-05-26 12:14:00,55.4,49.3,30.24,SE,126,2.0,4.0,80,0.00,,,0.01,Wunderground v.1.15,2013-05-26 17:14:00,
2013-05-26 12:15:00,55.5,49.4,30.24,East,88,3.0,4.0,80,0.00,,,0.01,Wunderground v.1.15,2013-05-26 17:15:00,
2013-05-26 12:17:00,55.6,49.2,30.24,ESE,123,3.0,4.0,79,0.00,,,0.01,Wunderground v.1.15,2013-05-26 17:17:00,
2013-05-26 12:18:00,55.6,49.2,30.24,East,96,3.0,4.0,79,0.00,,,0.01,Wunderground v.1.15,2013-05-26 17:18:00,
2013-05-26 12:19:00,55.6,49.2,30.24,East,97,3.0,4.0,79,0.00,,,0.01,Wunderground v.1.15,2013-05-26 17:19:00,
2013-05-26 12:20:00,55.7,49.3,30.24,SE,138,3.0,3.0,79,0.00,,,0.01,Wunderground v.1.15,2013-05-26 17:20:00,
2013-05-26 12:22:00,55.8,49.7,30.23,SE,138,3.0,3.0,80,0.00,,,0.01,Wunderground v.1.15,2013-05-26 17:22:00,
2013-05-26 12:25:00,56.0,49.9,30.23,SE,144,3.0,4.0,80,0.00,,,0.01,Wunderground v.1.15,2013-05-26 17:25:00,
2013-05-26 12:26:00,56.1,50.0,30.23,SE,128,3.0,4.0,80,0.00,,,0.01,Wunderground v.1.15,2013-05-26 17:26:00,
2013-05-26 12:27:00,56.1,49.7,30.23,SE,128,3.0,4.0,79,0.00,,,0.01,Wunderground v.1.15,2013-05-26 17:27:00,
2013-05-26 12:29:00,56.2,49.8,30.23,SE,143,3.0,7.0,79,0.00,,,0.01,Wunderground v.1.15,2013-05-26 17:29:00,
2013-05-26 12:30:00,56.2,49.8,30.23,SSE,159,3.0,3.0,79,0.00,,,0.01,Wunderground v.1.15,2013-05-26 17:30:00,
2013-05-26 12:32:00,56.3,49.9,30.23,SE,131,3.0,5.0,79,0.00,,,0.01,Wunderground v.1.15,2013-05-26 17:32:00,
2013-05-26 12:34:00,56.4,50.0,30.23,SE,130,3.0,5.0,79,0.00,,,0.01,Wunderground v.1.15,2013-05-26 17:34:00,
2013-05-26 12:36:00,56.6,50.5,30.23,SE,128,3.0,5.0,80,0.00,,,0.01,Wunderground v.1.15,2013-05-26 17:36:00,
2013-05-26 12:39:00,56.7,50.6,30.23,SE,127,2.0,5.0,80,0.00,,,0.01,Wunderground v.1.15,2013-05-26 17:39:00,
2013-05-26 12:40:00,56.7,50.3,30.23,ESE,110,2.0,4.0,79,0.00,,,0.01,Wunderground v.1.15,2013-05-26 17:40:00,
2013-05-26 12:41:00,56.8,50.4,30.23,ESE,112,2.0,6.0,79,0.00,,,0.01,Wunderground v.1.15,2013-05-26 17:41:00,
2013-05-26 12:42:00,56.8,50.4,30.23,ESE,117,2.0,6.0,79,0.00,,,0.01,Wunderground v.1.15,2013-05-26 17:42:00,
2013-05-26 12:44:00,56.9,50.1,30.24,ESE,121,2.0,6.0,78,0.00,,,0.01,Wunderground v.1.15,2013-05-26 17:44:00,
2013-05-26 12:46:00,56.9,50.5,30.23,East,94,3.0,6.0,79,0.00,,,0.01,Wunderground v.1.15,2013-05-26 17:46:00,
2013-05-26 12:47:00,56.9,50.5,30.23,East,92,3.0,6.0,79,0.00,,,0.01,Wunderground v.1.15,2013-05-26 17:47:00,
2013-05-26 12:49:00,56.9,50.5,30.23,East,94,3.0,6.0,79,0.00,,,0.01,Wunderground v.1.15,2013-05-26 17:49:00,
2013-05-26 12:50:00,57.0,50.5,30.23,ESE,116,3.0,3.0,79,0.00,,,0.01,Wunderground v.1.15,2013-05-26 17:50:00,
2013-05-26 12:52:00,57.0,50.5,30.23,ESE,102,3.0,3.0,79,0.00,,,0.01,Wunderground v.1.15,2013-05-26 17:52:00,
2013-05-26 12:53:00,57.1,50.6,30.24,SE,140,3.0,4.0,79,0.00,,,0.01,Wunderground v.1.15,2013-05-26 17:53:00,
2013-05-26 12:55:00,57.1,50.6,30.24,South,176,3.0,10.0,79,0.00,,,0.01,Wunderground v.1.15,2013-05-26 17:55:00,
2013-05-26 12:59:00,57.2,50.7,30.24,ESE,116,4.0,10.0,79,0.00,,,0.01,Wunderground v.1.15,2013-05-26 17:59:00,
2013-05-26 13:00:00,57.3,50.8,30.24,SSE,148,4.0,5.0,79,0.00,,,0.01,Wunderground v.1.15,2013-05-26 18:00:00,
2013-05-26 13:01:00,57.3,50.8,30.23,SSE,158,4.0,5.0,79,0.00,,,0.01,Wunderground v.1.15,2013-05-26 18:01:00,
2013-05-26 13:03:00,57.4,50.6,30.23,SSE,158,4.0,5.0,78,0.00,,,0.01,Wunderground v.1.15,2013-05-26 18:03:00,
2013-05-26 13:05:00,57.5,50.7,30.23,South,169,4.0,5.0,78,0.00,,,0.01,Wunderground v.1.15,2013-05-26 18:05:00,
2013-05-26 13:06:00,57.6,50.8,30.23,South,169,3.0,5.0,78,0.00,,,0.01,Wunderground v.1.15,2013-05-26 18:06:00,
2013-05-26 13:11:00,57.8,50.6,30.23,SE,140,3.0,3.0,77,0.00,,,0.01,Wunderground v.1.15,2013-05-26 18:11:00,
2013-05-26 13:12:00,57.8,50.6,30.24,SE,140,3.0,3.0,77,0.00,,,0.01,Wunderground v.1.15,2013-05-26 18:12:00,
2013-05-26 13:14:00,57.8,50.6,30.24,SE,132,3.0,4.0,77,0.00,,,0.01,Wunderground v.1.15,2013-05-26 18:14:00,
2013-05-26 13:16:00,57.8,50.3,30.24,ESE,122,3.0,10.0,76,0.00,,,0.01,Wunderground v.1.15,2013-05-26 18:16:00,
2013-05-26 13:18:00,57.9,50.4,30.24,SE,131,3.0,10.0,76,0.00,,,0.01,Wunderground v.1.15,2013-05-26 18:18:00,
2013-05-26 13:22:00,57.9,50.4,30.24,SE,130,2.0,2.0,76,0.00,,,0.01,Wunderground v.1.15,2013-05-26 18:22:00,
2013-05-26 13:23:00,57.9,50.4,30.24,SE,130,2.0,2.0,76,0.00,,,0.01,Wunderground v.1.15,2013-05-26 18:23:00,
2013-05-26 13:24:00,57.9,50.4,30.24,SSE,155,2.0,7.0,76,0.00,,,0.01,Wunderground v.1.15,2013-05-26 18:24:00,
2013-05-26 13:26:00,58.0,50.8,30.24,SSE,167,2.0,7.0,77,0.00,,,0.01,Wunderground v.1.15,2013-05-26 18:26:00,
2013-05-26 13:28:00,58.0,50.8,30.23,SSE,167,2.0,7.0,77,0.00,,,0.01,Wunderground v.1.15,2013-05-26 18:28:00,
2013-05-26 13:29:00,58.1,50.9,30.23,SSE,163,2.0,7.0,77,0.00,,,0.01,Wunderground v.1.15,2013-05-26 18:29:00,
2013-05-26 13:30:00,58.1,50.9,30.23,SSE,163,2.0,2.0,77,0.00,,,0.01,Wunderground v.1.15,2013-05-26 18:30:00,
2013-05-26 13:33:00,58.3,51.1,30.24,SSE,163,2.0,2.0,77,0.00,,,0.01,Wunderground v.1.15,2013-05-26 18:33:00,
2013-05-26 13:35:00,58.4,51.2,30.24,SSE,165,1.0,4.0,77,0.00,,,0.01,Wunderground v.1.15,2013-05-26 18:35:00,
2013-05-26 13:36:00,58.5,51.0,30.24,SSE,165,2.0,4.0,76,0.00,,,0.01,Wunderground v.1.15,2013-05-26 18:36:00,
2013-05-26 13:38:00,58.5,51.0,30.24,SSE,165,2.0,4.0,76,0.00,,,0.01,Wunderground v.1.15,2013-05-26 18:38:00,
2013-05-26 13:41:00,58.5,50.6,30.24,SE,135,2.0,5.0,75,0.00,,,0.01,Wunderground v.1.15,2013-05-26 18:41:00,
2013-05-26 13:42:00,58.5,50.6,30.24,SE,135,3.0,5.0,75,0.00,,,0.01,Wunderground v.1.15,2013-05-26 18:42:00,
2013-05-26 13:45:00,58.5,50.6,30.23,SE,145,3.0,5.0,75,0.00,,,0.01,Wunderground v.1.15,2013-05-26 18:45:00,
2013-05-26 13:46:00,58.5,51.0,30.23,SE,124,3.0,5.0,76,0.00,,,0.01,Wunderground v.1.15,2013-05-26 18:46:00,
2013-05-26 13:47:00,58.5,51.0,30.23,SE,125,3.0,5.0,76,0.00,,,0.01,Wunderground v.1.15,2013-05-26 18:47:00,
2013-05-26 13:48:00,58.5,51.0,30.23,SE,128,3.0,5.0,76,0.00,,,0.01,Wunderground v.1.15,2013-05-26 18:48:00,
2013-05-26 13:52:00,58.6,51.1,30.22,ESE,122,3.0,3.0,76,0.00,,,0.01,Wunderground v.1.15,2013-05-26 18:52:00,
2013-05-26 13:53:00,58.7,51.2,30.21,ESE,113,2.0,3.0,76,0.00,,,0.01,Wunderground v.1.15,2013-05-26 18:53:00,
2013-05-26 13:56:00,58.8,50.9,30.21,ESE,113,2.0,4.0,75,0.00,,,0.01,Wunderground v.1.15,2013-05-26 18:56:00,
2013-05-26 13:57:00,58.8,50.9,30.22,ESE,113,2.0,4.0,75,0.00,,,0.01,Wunderground v.1.15,2013-05-26 18:57:00,
2013-05-26 13:58:00,58.8,50.9,30.22,ESE,121,2.0,4.0,75,0.00,,,0.01,Wunderground v.1.15,2013-05-26 18:58:00,
2013-05-26 14:01:00,58.9,51.0,30.22,SSE,167,3.0,5.0,75,0.00,,,0.01,Wunderground v.1.15,2013-05-26 19:01:00,
2013-05-26 14:05:00,58.8,50.5,30.22,SE,131,4.0,6.0,74,0.00,,,0.01,Wunderground v.1.15,2013-05-26 19:05:00,
2013-05-26 14:06:00,58.8,50.9,30.22,SE,133,4.0,6.0,75,0.00,,,0.01,Wunderground v.1.15,2013-05-26 19:06:00,
2013-05-26 14:08:00,58.7,50.4,30.21,SE,145,4.0,8.0,74,0.00,,,0.01,Wunderground v.1.15,2013-05-26 19:08:00,
2013-05-26 14:10:00,58.7,50.8,30.21,SE,142,4.0,4.0,75,0.00,,,0.01,Wunderground v.1.15,2013-05-26 19:10:00,
2013-05-26 14:11:00,58.7,51.2,30.21,SE,141,4.0,4.0,76,0.00,,,0.01,Wunderground v.1.15,2013-05-26 19:11:00,
2013-05-26 14:13:00,58.7,51.2,30.21,ESE,111,4.0,4.0,76,0.00,,,0.01,Wunderground v.1.15,2013-05-26 19:13:00,
2013-05-26 14:14:00,58.7,51.2,30.21,ESE,112,3.0,4.0,76,0.00,,,0.01,Wunderground v.1.15,2013-05-26 19:14:00,
2013-05-26 14:15:00,58.7,51.2,30.21,East,89,3.0,6.0,76,0.00,,,0.01,Wunderground v.1.15,2013-05-26 19:15:00,
2013-05-26 14:19:00,58.7,51.2,30.21,ESE,105,3.0,9.0,76,0.00,,,0.01,Wunderground v.1.15,2013-05-26 19:19:00,
2013-05-26 14:20:00,58.6,50.7,30.20,SE,128,4.0,5.0,75,0.00,,,0.01,Wunderground v.1.15,2013-05-26 19:20:00,
2013-05-26 14:22:00,58.6,51.1,30.21,SE,142,4.0,9.0,76,0.00,,,0.01,Wunderground v.1.15,2013-05-26 19:22:00,
2013-05-26 14:25:00,58.4,50.9,30.20,SE,126,5.0,10.0,76,0.00,,,0.01,Wunderground v.1.15,2013-05-26 19:25:00,
2013-05-26 14:28:00,58.3,50.8,30.20,SE,140,4.0,10.0,76,0.00,,,0.01,Wunderground v.1.15,2013-05-26 19:28:00,
2013-05-26 14:29:00,58.3,50.8,30.20,SE,140,4.0,10.0,76,0.00,,,0.01,Wunderground v.1.15,2013-05-26 19:29:00,
2013-05-26 14:31:00,58.2,51.0,30.19,SE,132,4.0,4.0,77,0.00,,,0.01,Wunderground v.1.15,2013-05-26 19:31:00,
2013-05-26 14:34:00,58.1,50.9,30.20,ESE,122,4.0,5.0,77,0.00,,,0.01,Wunderground v.1.15,2013-05-26 19:34:00,
2013-05-26 14:35:00,58.1,51.3,30.19,SE,132,4.0,5.0,78,0.00,,,0.01,Wunderground v.1.15,2013-05-26 19:35:00,
2013-05-26 14:36:00,58.1,51.3,30.19,SE,130,4.0,6.0,78,0.00,,,0.01,Wunderground v.1.15,2013-05-26 19:36:00,
2013-05-26 14:38:00,58.0,51.2,30.19,East,89,5.0,6.0,78,0.00,,,0.01,Wunderground v.1.15,2013-05-26 19:38:00,
2013-05-26 14:41:00,57.8,51.7,30.19,East,94,5.0,5.0,80,0.00,,,0.01,Wunderground v.1.15,2013-05-26 19:41:00,
2013-05-26 14:42:00,57.8,51.7,30.19,SE,124,5.0,5.0,80,0.00,,,0.01,Wunderground v.1.15,2013-05-26 19:42:00,
2013-05-26 14:46:00,57.8,52.0,30.19,SE,126,5.0,5.0,81,0.00,,,0.01,Wunderground v.1.15,2013-05-26 19:46:00,
2013-05-26 14:47:00,57.8,52.3,30.19,SE,126,4.0,5.0,82,0.00,,,0.01,Wunderground v.1.15,2013-05-26 19:47:00,
2013-05-26 14:48:00,57.8,52.3,30.19,SE,125,4.0,5.0,82,0.00,,,0.01,Wunderground v.1.15,2013-05-26 19:48:00,
2013-05-26 14:49:00,57.8,52.3,30.20,East,98,4.0,6.0,82,0.00,,,0.01,Wunderground v.1.15,2013-05-26 19:49:00,
2013-05-26 14:50:00,57.8,52.3,30.20,ESE,108,3.0,4.0,82,0.00,,,0.01,Wunderground v.1.15,2013-05-26 19:50:00,
2013-05-26 14:53:00,57.7,52.2,30.20,ENE,78,4.0,5.0,82,0.00,,,0.01,Wunderground v.1.15,2013-05-26 19:53:00,
2013-05-26 14:56:00,57.6,52.1,30.19,SE,134,4.0,6.0,82,0.00,,,0.01,Wunderground v.1.15,2013-05-26 19:56:00,
2013-05-26 14:57:00,57.6,52.1,30.19,SE,130,4.0,6.0,82,0.00,,,0.01,Wunderground v.1.15,2013-05-26 19:57:00,
2013-05-26 14:59:00,57.6,52.1,30.19,East,99,4.0,6.0,82,0.00,,,0.01,Wunderground v.1.15,2013-05-26 19:59:00,
2013-05-26 15:03:00,57.4,52.3,30.19,ESE,107,4.0,10.0,83,0.00,,,0.01,Wunderground v.1.15,2013-05-26 20:03:00,
2013-05-26 15:05:00,57.4,52.3,30.18,SE,130,3.0,10.0,83,0.00,,,0.01,Wunderground v.1.15,2013-05-26 20:05:00,
2013-05-26 15:06:00,57.4,52.3,30.18,ESE,121,3.0,10.0,83,0.00,,,0.01,Wunderground v.1.15,2013-05-26 20:06:00,
2013-05-26 15:08:00,57.4,52.3,30.18,SE,142,3.0,10.0,83,0.00,,,0.01,Wunderground v.1.15,2013-05-26 20:08:00,
2013-05-26 15:13:00,57.5,52.7,30.18,ESE,109,3.0,4.0,84,0.00,,,0.01,Wunderground v.1.15,2013-05-26 20:13:00,
2013-05-26 15:14:00,57.5,53.0,30.19,East,100,3.0,4.0,85,0.00,,,0.01,Wunderground v.1.15,2013-05-26 20:14:00,
2013-05-26 15:15:00,57.5,52.7,30.19,East,100,3.0,4.0,84,0.00,,,0.01,Wunderground v.1.15,2013-05-26 20:15:00,
2013-05-26 15:19:00,57.6,53.1,30.18,ENE,73,2.0,10.0,85,0.00,,,0.01,Wunderground v.1.15,2013-05-26 20:19:00,
2013-05-26 15:23:00,57.6,52.8,30.19,ESE,121,3.0,6.0,84,0.00,,,0.01,Wunderground v.1.15,2013-05-26 20:23:00,
2013-05-26 15:24:00,57.6,52.8,30.19,ESE,109,2.0,6.0,84,0.00,,,0.01,Wunderground v.1.15,2013-05-26 20:24:00,
2013-05-26 15:25:00,57.6,53.1,30.19,SE,139,3.0,6.0,85,0.00,,,0.01,Wunderground v.1.15,2013-05-26 20:25:00,
2013-05-26 15:26:00,57.6,53.1,30.18,East,97,2.0,6.0,85,0.00,,,0.01,Wunderground v.1.15,2013-05-26 20:26:00,
2013-05-26 15:28:00,57.6,53.1,30.18,ESE,102,3.0,6.0,85,0.00,,,0.01,Wunderground v.1.15,2013-05-26 20:28:00,
2013-05-26 15:29:00,57.6,53.1,30.19,ESE,102,3.0,6.0,85,0.00,,,0.01,Wunderground v.1.15,2013-05-26 20:29:00,
2013-05-26 15:31:00,57.7,53.2,30.19,SE,136,3.0,3.0,85,0.00,,,0.01,Wunderground v.1.15,2013-05-26 20:31:00,
2013-05-26 15:33:00,57.7,53.2,30.18,ESE,119,3.0,4.0,85,0.00,,,0.01,Wunderground v.1.15,2013-05-26 20:33:00,
2013-05-26 15:34:00,57.7,53.2,30.18,SE,129,3.0,4.0,85,0.00,,,0.01,Wunderground v.1.15,2013-05-26 20:34:00,
2013-05-26 15:36:00,57.8,53.6,30.18,SSE,157,3.0,5.0,86,0.00,,,0.01,Wunderground v.1.15,2013-05-26 20:36:00,
2013-05-26 15:39:00,57.9,53.4,30.18,ESE,119,3.0,5.0,85,0.00,,,0.01,Wunderground v.1.15,2013-05-26 20:39:00,
2013-05-26 15:41:00,57.9,53.4,30.18,ESE,114,3.0,3.0,85,0.00,,,0.01,Wunderground v.1.15,2013-05-26 20:41:00,
2013-05-26 15:42:00,57.9,53.4,30.18,ESE,113,3.0,3.0,85,0.00,,,0.01,Wunderground v.1.15,2013-05-26 20:42:00,
2013-05-26 15:43:00,58.0,53.5,30.18,East,97,3.0,5.0,85,0.00,,,0.01,Wunderground v.1.15,2013-05-26 20:43:00,
2013-05-26 15:44:00,57.9,53.4,30.18,East,96,3.0,5.0,85,0.00,,,0.01,Wunderground v.1.15,2013-05-26 20:44:00,
2013-05-26 15:46:00,57.9,53.1,30.19,ENE,60,3.0,5.0,84,0.00,,,0.01,Wunderground v.1.15,2013-05-26 20:46:00,
2013-05-26 15:50:00,57.9,53.1,30.20,ENE,76,2.0,2.0,84,0.00,,,0.01,Wunderground v.1.15,2013-05-26 20:50:00,
2013-05-26 15:51:00,57.9,53.1,30.21,ENE,75,2.0,3.0,84,0.00,,,0.01,Wunderground v.1.15,2013-05-26 20:51:00,
2013-05-26 15:54:00,57.9,53.1,30.22,ENE,68,2.0,4.0,84,0.00,,,0.01,Wunderground v.1.15,2013-05-26 20:54:00,
2013-05-26 15:55:00,57.9,53.1,30.22,ENE,68,1.0,4.0,84,0.00,,,0.02,Wunderground v.1.15,2013-05-26 20:55:00,
2013-05-26 15:56:00,57.8,53.3,30.21,ENE,68,1.0,4.0,85,0.39,,,0.03,Wunderground v.1.15,2013-05-26 20:56:00,
2013-05-26 15:57:00,57.8,53.3,30.20,East,80,1.0,4.0,85,0.37,,,0.03,Wunderground v.1.15,2013-05-26 20:57:00,
2013-05-26 16:00:00,57.7,53.5,30.16,ESE,115,2.0,3.0,86,1.05,,,0.06,Wunderground v.1.15,2013-05-26 21:00:00,
2013-05-26 16:05:00,57.3,53.5,30.18,East,98,3.0,9.0,87,0.50,,,0.13,Wunderground v.1.15,2013-05-26 21:05:00,
2013-05-26 16:06:00,57.1,53.6,30.18,East,82,3.0,9.0,88,0.32,,,0.13,Wunderground v.1.15,2013-05-26 21:06:00,
2013-05-26 16:07:00,57.1,53.6,30.18,East,82,3.0,9.0,88,0.27,,,0.13,Wunderground v.1.15,2013-05-26 21:07:00,
2013-05-26 16:08:00,57.0,53.5,30.18,East,82,3.0,9.0,88,0.27,,,0.14,Wunderground v.1.15,2013-05-26 21:08:00,
2013-05-26 16:11:00,56.8,53.6,30.18,East,94,2.0,10.0,89,0.13,,,0.14,Wunderground v.1.15,2013-05-26 21:11:00,
2013-05-26 16:13:00,56.7,53.5,30.17,ESE,108,3.0,10.0,89,0.10,,,0.14,Wunderground v.1.15,2013-05-26 21:13:00,
2013-05-26 16:14:00,56.7,53.5,30.17,East,80,3.0,10.0,89,0.09,,,0.14,Wunderground v.1.15,2013-05-26 21:14:00,
2013-05-26 16:16:00,56.6,53.7,30.17,ESE,111,2.0,10.0,90,0.06,,,0.14,Wunderground v.1.15,2013-05-26 21:16:00,
2013-05-26 16:20:00,56.5,53.6,30.18,ENE,67,3.0,3.0,90,0.05,,,0.14,Wunderground v.1.15,2013-05-26 21:20:00,
2013-05-26 16:22:00,56.4,53.5,30.18,NE,38,3.0,3.0,90,0.04,,,0.14,Wunderground v.1.15,2013-05-26 21:22:00,
2013-05-26 16:24:00,56.4,53.5,30.19,NE,38,3.0,3.0,90,0.04,,,0.14,Wunderground v.1.15,2013-05-26 21:24:00,
2013-05-26 16:26:00,56.4,53.8,30.19,NE,39,2.0,3.0,91,0.00,,,0.14,Wunderground v.1.15,2013-05-26 21:26:00,
2013-05-26 16:27:00,56.4,53.8,30.19,NE,39,2.0,3.0,91,0.00,,,0.14,Wunderground v.1.15,2013-05-26 21:27:00,
2013-05-26 16:29:00,56.3,53.7,30.19,NE,39,1.0,3.0,91,0.00,,,0.14,Wunderground v.1.15,2013-05-26 21:29:00,
2013-05-26 16:32:00,56.3,53.7,30.19,NE,40,1.0,1.0,91,0.00,,,0.14,Wunderground v.1.15,2013-05-26 21:32:00,
2013-05-26 16:33:00,56.3,53.7,30.19,NE,40,1.0,1.0,91,0.00,,,0.14,Wunderground v.1.15,2013-05-26 21:33:00,
2013-05-26 16:34:00,56.2,53.6,30.19,NE,40,1.0,1.0,91,0.00,,,0.14,Wunderground v.1.15,2013-05-26 21:34:00,
2013-05-26 16:35:00,56.2,53.6,30.19,NE,40,1.0,1.0,91,0.00,,,0.14,Wunderground v.1.15,2013-05-26 21:35:00,
2013-05-26 16:36:00,56.2,53.6,30.19,NE,39,0.0,2.0,91,0.00,,,0.14,Wunderground v.1.15,2013-05-26 21:36:00,
2013-05-26 16:38:00,56.2,53.6,30.20,NE,38,1.0,2.0,91,0.00,,,0.14,Wunderground v.1.15,2013-05-26 21:38:00,
2013-05-26 16:40:00,56.2,53.6,30.21,NE,38,1.0,1.0,91,0.00,,,0.14,Wunderground v.1.15,2013-05-26 21:40:00,
2013-05-26 16:43:00,56.2,53.9,30.19,NE,40,2.0,4.0,92,0.00,,,0.15,Wunderground v.1.15,2013-05-26 21:43:00,
2013-05-26 16:44:00,56.2,53.9,30.19,NE,41,2.0,4.0,92,0.00,,,0.15,Wunderground v.1.15,2013-05-26 21:44:00,
2013-05-26 16:45:00,56.2,53.9,30.18,ENE,66,2.0,4.0,92,0.00,,,0.15,Wunderground v.1.15,2013-05-26 21:45:00,
2013-05-26 16:50:00,56.3,54.0,30.16,East,93,3.0,3.0,92,0.00,,,0.15,Wunderground v.1.15,2013-05-26 21:50:00,
2013-05-26 16:51:00,56.3,54.0,30.16,East,99,3.0,3.0,92,0.07,,,0.16,Wunderground v.1.15,2013-05-26 21:51:00,
2013-05-26 16:53:00,56.3,54.0,30.15,ESE,111,3.0,3.0,92,0.07,,,0.16,Wunderground v.1.15,2013-05-26 21:53:00,
2013-05-26 16:55:00,56.4,54.1,30.15,East,86,3.0,7.0,92,0.07,,,0.16,Wunderground v.1.15,2013-05-26 21:55:00,
2013-05-26 16:56:00,56.4,54.1,30.15,East,94,3.0,7.0,92,0.07,,,0.16,Wunderground v.1.15,2013-05-26 21:56:00,
2013-05-26 16:57:00,56.4,54.4,30.15,ESE,103,3.0,7.0,93,0.07,,,0.16,Wunderground v.1.15,2013-05-26 21:57:00,
2013-05-26 16:59:00,56.4,54.1,30.15,ESE,117,4.0,7.0,92,0.07,,,0.16,Wunderground v.1.15,2013-05-26 21:59:00,
2013-05-26 17:00:00,56.3,54.0,30.15,ESE,119,4.0,5.0,92,0.06,,,0.16,Wunderground v.1.15,2013-05-26 22:00:00,
2013-05-26 17:03:00,56.3,54.0,30.15,ESE,123,5.0,5.0,92,0.05,,,0.16,Wunderground v.1.15,2013-05-26 22:03:00,
2013-05-26 17:05:00,56.3,54.0,30.15,South,181,5.0,9.0,92,0.04,,,0.16,Wunderground v.1.15,2013-05-26 22:05:00,
2013-05-26 17:06:00,56.3,54.0,30.15,SSE,167,5.0,9.0,92,0.04,,,0.16,Wunderground v.1.15,2013-05-26 22:06:00,
2013-05-26 17:07:00,56.3,54.0,30.15,SSE,164,5.0,9.0,92,0.04,,,0.16,Wunderground v.1.15,2013-05-26 22:07:00,
2013-05-26 17:08:00,56.3,54.0,30.15,SE,146,5.0,9.0,92,0.00,,,0.16,Wunderground v.1.15,2013-05-26 22:08:00,
2013-05-26 17:09:00,56.3,54.0,30.14,East,99,5.0,9.0,92,0.00,,,0.16,Wunderground v.1.15,2013-05-26 22:09:00,
2013-05-26 17:10:00,56.3,54.3,30.14,ESE,104,5.0,5.0,93,0.00,,,0.16,Wunderground v.1.15,2013-05-26 22:10:00,
2013-05-26 17:13:00,56.3,54.3,30.14,East,98,5.0,5.0,93,0.00,,,0.16,Wunderground v.1.15,2013-05-26 22:13:00,
2013-05-26 17:14:00,56.3,54.3,30.13,ESE,113,5.0,8.0,93,0.00,,,0.16,Wunderground v.1.15,2013-05-26 22:14:00,
2013-05-26 17:16:00,56.4,54.4,30.13,ESE,121,5.0,8.0,93,0.00,,,0.16,Wunderground v.1.15,2013-05-26 22:16:00,
2013-05-26 17:18:00,56.4,54.1,30.14,East,99,6.0,8.0,92,0.00,,,0.16,Wunderground v.1.15,2013-05-26 22:18:00,
2013-05-26 17:19:00,56.4,54.1,30.14,SE,139,5.0,8.0,92,0.00,,,0.16,Wunderground v.1.15,2013-05-26 22:19:00,
2013-05-26 17:24:00,56.5,54.5,30.14,East,98,5.0,6.0,93,0.00,,,0.16,Wunderground v.1.15,2013-05-26 22:24:00,
2013-05-26 17:25:00,56.5,54.5,30.14,ESE,117,5.0,6.0,93,0.00,,,0.16,Wunderground v.1.15,2013-05-26 22:25:00,
2013-05-26 17:26:00,56.6,54.6,30.14,ESE,113,5.0,6.0,93,0.00,,,0.16,Wunderground v.1.15,2013-05-26 22:26:00,
2013-05-26 17:30:00,56.7,54.7,30.13,East,99,4.0,4.0,93,0.00,,,0.16,Wunderground v.1.15,2013-05-26 22:30:00,
2013-05-26 17:31:00,56.8,54.8,30.13,East,98,4.0,4.0,93,0.00,,,0.16,Wunderground v.1.15,2013-05-26 22:31:00,
2013-05-26 17:32:00,56.8,54.8,30.13,East,98,4.0,4.0,93,0.00,,,0.16,Wunderground v.1.15,2013-05-26 22:32:00,
2013-05-26 17:33:00,56.8,54.8,30.13,East,96,4.0,5.0,93,0.00,,,0.16,Wunderground v.1.15,2013-05-26 22:33:00,
2013-05-26 17:36:00,56.9,54.9,30.13,ESE,112,4.0,6.0,93,0.00,,,0.16,Wunderground v.1.15,2013-05-26 22:36:00,
2013-05-26 17:38:00,56.9,54.9,30.13,ESE,113,4.0,6.0,93,0.00,,,0.16,Wunderground v.1.15,2013-05-26 22:38:00,
2013-05-26 17:39:00,57.0,54.7,30.13,ESE,109,4.0,6.0,92,0.00,,,0.16,Wunderground v.1.15,2013-05-26 22:39:00,
2013-05-26 17:44:00,56.9,54.3,30.12,ESE,104,5.0,5.0,91,0.00,,,0.16,Wunderground v.1.15,2013-05-26 22:44:00,
2013-05-26 17:45:00,56.9,54.3,30.12,ESE,107,6.0,6.0,91,0.00,,,0.16,Wunderground v.1.15,2013-05-26 22:45:00,
2013-05-26 17:47:00,56.9,54.3,30.12,ESE,122,6.0,6.0,91,0.00,,,0.16,Wunderground v.1.15,2013-05-26 22:47:00,
2013-05-26 17:52:00,56.9,54.3,30.12,East,96,5.0,5.0,91,0.00,,,0.16,Wunderground v.1.15,2013-05-26 22:52:00,
2013-05-26 17:53:00,56.9,54.0,30.12,SSE,160,4.0,5.0,90,0.00,,,0.16,Wunderground v.1.15,2013-05-26 22:53:00,
2013-05-26 17:54:00,56.9,54.0,30.12,South,177,5.0,5.0,90,0.00,,,0.16,Wunderground v.1.15,2013-05-26 22:54:00,
2013-05-26 17:57:00,56.9,54.0,30.12,East,98,5.0,12.0,90,0.00,,,0.16,Wunderground v.1.15,2013-05-26 22:57:00,
2013-05-26 17:58:00,56.9,54.0,30.12,East,86,5.0,12.0,90,0.00,,,0.16,Wunderground v.1.15,2013-05-26 22:58:00,
2013-05-26 17:59:00,56.9,54.0,30.12,ESE,105,5.0,12.0,90,0.00,,,0.16,Wunderground v.1.15,2013-05-26 22:59:00,
2013-05-26 18:03:00,57.0,53.8,30.13,ESE,115,6.0,13.0,89,0.00,,,0.16,Wunderground v.1.15,2013-05-26 23:03:00,
2013-05-26 18:04:00,57.0,53.8,30.13,East,87,6.0,13.0,89,0.00,,,0.16,Wunderground v.1.15,2013-05-26 23:04:00,
2013-05-26 18:07:00,57.0,53.5,30.13,East,88,5.0,13.0,88,0.00,,,0.16,Wunderground v.1.15,2013-05-26 23:07:00,
2013-05-26 18:08:00,57.1,53.6,30.13,ENE,78,5.0,13.0,88,0.00,,,0.16,Wunderground v.1.15,2013-05-26 23:08:00,
2013-05-26 18:09:00,57.1,53.9,30.13,ENE,75,5.0,13.0,89,0.00,,,0.16,Wunderground v.1.15,2013-05-26 23:09:00,
2013-05-26 18:10:00,57.1,53.9,30.13,SE,138,4.0,4.0,89,0.00,,,0.16,Wunderground v.1.15,2013-05-26 23:10:00,
2013-05-26 18:12:00,57.1,53.9,30.13,SE,139,4.0,4.0,89,0.00,,,0.16,Wunderground v.1.15,2013-05-26 23:12:00,
2013-05-26 18:15:00,57.2,54.0,30.14,ESE,121,3.0,5.0,89,0.00,,,0.16,Wunderground v.1.15,2013-05-26 23:15:00,
2013-05-26 18:16:00,57.2,53.7,30.14,East,94,3.0,5.0,88,0.00,,,0.16,Wunderground v.1.15,2013-05-26 23:16:00,
2013-05-26 18:20:00,57.3,53.8,30.14,ESE,119,3.0,4.0,88,0.00,,,0.16,Wunderground v.1.15,2013-05-26 23:20:00,
2013-05-26 18:21:00,57.3,53.8,30.14,SSE,155,4.0,4.0,88,0.00,,,0.16,Wunderground v.1.15,2013-05-26 23:21:00,
2013-05-26 18:22:00,57.3,53.8,30.14,SE,140,4.0,4.0,88,0.00,,,0.16,Wunderground v.1.15,2013-05-26 23:22:00,
2013-05-26 18:24:00,57.3,53.8,30.14,SE,136,4.0,5.0,88,0.00,,,0.16,Wunderground v.1.15,2013-05-26 23:24:00,
2013-05-26 18:26:00,57.4,53.9,30.14,ESE,122,4.0,5.0,88,0.00,,,0.16,Wunderground v.1.15,2013-05-26 23:26:00,
2013-05-26 18:27:00,57.4,53.9,30.14,East,89,4.0,6.0,88,0.00,,,0.16,Wunderground v.1.15,2013-05-26 23:27:00,
2013-05-26 18:28:00,57.4,53.9,30.14,SE,138,4.0,6.0,88,0.00,,,0.16,Wunderground v.1.15,2013-05-26 23:28:00,
2013-05-26 18:30:00,57.4,53.9,30.14,SE,139,3.0,6.0,88,0.00,,,0.16,Wunderground v.1.15,2013-05-26 23:30:00,
2013-05-26 18:32:00,57.4,53.9,30.13,SSE,167,3.0,6.0,88,0.00,,,0.16,Wunderground v.1.15,2013-05-26 23:32:00,
2013-05-26 18:33:00,57.4,53.9,30.13,SE,125,3.0,6.0,88,0.00,,,0.16,Wunderground v.1.15,2013-05-26 23:33:00,
2013-05-26 18:35:00,57.4,53.6,30.13,ESE,119,4.0,8.0,87,0.00,,,0.16,Wunderground v.1.15,2013-05-26 23:35:00,
2013-05-26 18:36:00,57.4,53.6,30.13,East,99,4.0,8.0,87,0.00,,,0.16,Wunderground v.1.15,2013-05-26 23:36:00,
2013-05-26 18:38:00,57.4,53.6,30.12,SE,137,5.0,8.0,87,0.00,,,0.16,Wunderground v.1.15,2013-05-26 23:38:00,
2013-05-26 18:41:00,57.4,53.6,30.11,East,98,5.0,7.0,87,0.00,,,0.16,Wunderground v.1.15,2013-05-26 23:41:00,
2013-05-26 18:43:00,57.4,53.6,30.11,SE,135,6.0,7.0,87,0.00,,,0.16,Wunderground v.1.15,2013-05-26 23:43:00,
2013-05-26 18:46:00,57.4,53.6,30.10,SE,138,5.0,11.0,87,0.00,,,0.16,Wunderground v.1.15,2013-05-26 23:46:00,
2013-05-26 18:47:00,57.3,53.5,30.10,SSE,159,5.0,12.0,87,0.00,,,0.16,Wunderground v.1.15,2013-05-26 23:47:00,
2013-05-26 18:48:00,57.3,53.5,30.09,ESE,111,6.0,12.0,87,0.00,,,0.16,Wunderground v.1.15,2013-05-26 23:48:00,
2013-05-26 18:52:00,57.3,53.5,30.08,ENE,63,6.0,10.0,87,0.00,,,0.16,Wunderground v.1.15,2013-05-26 23:52:00,
2013-05-26 18:53:00,57.3,53.5,30.08,SE,129,6.0,10.0,87,0.00,,,0.16,Wunderground v.1.15,2013-05-26 23:53:00,
2013-05-26 18:54:00,57.3,53.5,30.09,ESE,105,6.0,12.0,87,0.00,,,0.16,Wunderground v.1.15,2013-05-26 23:54:00,
2013-05-26 18:55:00,57.3,53.5,30.09,ENE,74,6.0,12.0,87,0.00,,,0.16,Wunderground v.1.15,2013-05-26 23:55:00,
2013-05-26 18:58:00,57.2,53.4,30.09,SE,124,6.0,12.0,87,0.00,,,0.16,Wunderground v.1.15,2013-05-26 23:58:00,
2013-05-26 18:59:00,57.2,53.4,30.09,SE,146,6.0,12.0,87,0.00,,,0.16,Wunderground v.1.15,2013-05-26 23:59:00,
2013-05-26 19:01:00,57.2,53.4,30.10,ESE,115,5.0,5.0,87,0.00,,,0.16,Wunderground v.1.15,2013-05-27 00:01:00,
2013-05-26 19:02:00,57.2,53.4,30.10,ESE,115,4.0,5.0,87,0.00,,,0.16,Wunderground v.1.15,2013-05-27 00:02:00,
2013-05-26 19:03:00,57.2,53.4,30.10,ESE,115,4.0,5.0,87,0.00,,,0.16,Wunderground v.1.15,2013-05-27 00:03:00,
2013-05-26 19:08:00,57.2,53.4,30.10,ESE,119,4.0,9.0,87,0.00,,,0.16,Wunderground v.1.15,2013-05-27 00:08:00,
2013-05-26 19:09:00,57.1,53.3,30.10,East,101,4.0,9.0,87,0.00,,,0.16,Wunderground v.1.15,2013-05-27 00:09:00,
2013-05-26 19:10:00,57.1,53.3,30.11,East,98,4.0,4.0,87,0.00,,,0.16,Wunderground v.1.15,2013-05-27 00:10:00,
2013-05-26 19:12:00,57.2,53.4,30.11,ESE,118,4.0,4.0,87,0.00,,,0.16,Wunderground v.1.15,2013-05-27 00:12:00,
2013-05-26 19:13:00,57.1,53.3,30.11,ESE,111,4.0,4.0,87,0.00,,,0.16,Wunderground v.1.15,2013-05-27 00:13:00,
2013-05-26 19:15:00,57.1,53.3,30.12,SE,134,5.0,6.0,87,0.00,,,0.16,Wunderground v.1.15,2013-05-27 00:15:00,
2013-05-26 19:17:00,57.1,53.3,30.12,ESE,103,4.0,6.0,87,0.00,,,0.16,Wunderground v.1.15,2013-05-27 00:17:00,
2013-05-26 19:19:00,57.1,53.3,30.13,ESE,109,4.0,6.0,87,0.00,,,0.16,Wunderground v.1.15,2013-05-27 00:19:00,
2013-05-26 19:22:00,57.1,53.6,30.13,East,99,3.0,4.0,88,0.00,,,0.16,Wunderground v.1.15,2013-05-27 00:22:00,
2013-05-26 19:25:00,57.1,53.6,30.13,East,90,2.0,4.0,88,0.00,,,0.16,Wunderground v.1.15,2013-05-27 00:25:00,
2013-05-26 19:27:00,57.1,53.6,30.13,East,85,2.0,4.0,88,0.00,,,0.16,Wunderground v.1.15,2013-05-27 00:27:00,
2013-05-26 19:28:00,57.0,53.5,30.13,East,85,2.0,4.0,88,0.00,,,0.16,Wunderground v.1.15,2013-05-27 00:28:00,
2013-05-26 19:32:00,57.1,53.6,30.12,East,95,2.0,3.0,88,0.00,,,0.16,Wunderground v.1.15,2013-05-27 00:32:00,
2013-05-26 19:34:00,57.0,53.5,30.12,ESE,107,3.0,3.0,88,0.00,,,0.16,Wunderground v.1.15,2013-05-27 00:34:00,
2013-05-26 19:35:00,57.0,53.5,30.12,ESE,106,3.0,3.0,88,0.00,,,0.16,Wunderground v.1.15,2013-05-27 00:35:00,
2013-05-26 19:38:00,57.0,53.5,30.12,ESE,123,3.0,4.0,88,0.00,,,0.16,Wunderground v.1.15,2013-05-27 00:38:00,
2013-05-26 19:40:00,57.0,53.5,30.12,ESE,114,3.0,3.0,88,0.00,,,0.16,Wunderground v.1.15,2013-05-27 00:40:00,
2013-05-26 19:41:00,56.9,53.4,30.12,ESE,113,3.0,3.0,88,0.00,,,0.16,Wunderground v.1.15,2013-05-27 00:41:00,
2013-05-26 19:44:00,56.9,53.7,30.11,ESE,108,3.0,5.0,89,0.00,,,0.16,Wunderground v.1.15,2013-05-27 00:44:00,
2013-05-26 19:46:00,56.9,53.7,30.11,ESE,109,2.0,7.0,89,0.00,,,0.16,Wunderground v.1.15,2013-05-27 00:46:00,
2013-05-26 19:47:00,56.9,53.7,30.11,ESE,113,2.0,7.0,89,0.00,,,0.16,Wunderground v.1.15,2013-05-27 00:47:00,
2013-05-26 19:48:00,56.8,53.6,30.11,ESE,107,2.0,7.0,89,0.00,,,0.16,Wunderground v.1.15,2013-05-27 00:48:00,
2013-05-26 19:52:00,56.7,53.5,30.10,ESE,107,3.0,5.0,89,0.00,,,0.17,Wunderground v.1.15,2013-05-27 00:52:00,
2013-05-26 19:54:00,56.7,53.5,30.10,East,90,3.0,5.0,89,0.00,,,0.17,Wunderground v.1.15,2013-05-27 00:54:00,
2013-05-26 19:56:00,56.6,53.4,30.09,East,94,4.0,5.0,89,0.10,,,0.18,Wunderground v.1.15,2013-05-27 00:56:00,
2013-05-26 20:00:00,56.5,53.6,30.09,East,94,3.0,6.0,90,0.19,,,0.19,Wunderground v.1.15,2013-05-27 01:00:00,
2013-05-26 20:02:00,56.4,53.5,30.09,ESE,107,4.0,6.0,90,0.19,,,0.20,Wunderground v.1.15,2013-05-27 01:02:00,
2013-05-26 20:04:00,56.3,53.4,30.10,East,91,4.0,6.0,90,0.16,,,0.21,Wunderground v.1.15,2013-05-27 01:04:00,
2013-05-26 20:06:00,56.3,53.4,30.10,ESE,106,3.0,6.0,90,0.16,,,0.21,Wunderground v.1.15,2013-05-27 01:06:00,
2013-05-26 20:09:00,56.2,53.6,30.10,East,86,3.0,6.0,91,0.12,,,0.21,Wunderground v.1.15,2013-05-27 01:09:00,
2013-05-26 20:11:00,56.1,53.5,30.10,ESE,113,3.0,4.0,91,0.08,,,0.21,Wunderground v.1.15,2013-05-27 01:11:00,
2013-05-26 20:13:00,56.0,53.4,30.10,SE,136,2.0,4.0,91,0.07,,,0.21,Wunderground v.1.15,2013-05-27 01:13:00,
2013-05-26 20:14:00,56.0,53.4,30.10,East,94,2.0,4.0,91,0.06,,,0.21,Wunderground v.1.15,2013-05-27 01:14:00,
2013-05-26 20:16:00,56.0,53.4,30.10,ESE,119,2.0,5.0,91,0.05,,,0.21,Wunderground v.1.15,2013-05-27 01:16:00,
2013-05-26 20:17:00,56.0,53.4,30.10,ESE,121,3.0,5.0,91,0.05,,,0.21,Wunderground v.1.15,2013-05-27 01:17:00,
2013-05-26 20:20:00,55.9,53.3,30.10,ESE,111,2.0,2.0,91,0.04,,,0.22,Wunderground v.1.15,2013-05-27 01:20:00,
2013-05-26 20:21:00,55.9,53.3,30.10,ESE,111,2.0,3.0,91,0.04,,,0.22,Wunderground v.1.15,2013-05-27 01:21:00,
2013-05-26 20:22:00,55.9,53.3,30.10,ESE,110,2.0,4.0,91,0.04,,,0.22,Wunderground v.1.15,2013-05-27 01:22:00,
2013-05-26 20:23:00,55.8,53.2,30.11,ESE,110,2.0,4.0,91,0.04,,,0.22,Wunderground v.1.15,2013-05-27 01:23:00,
2013-05-26 20:27:00,55.8,53.5,30.10,East,89,2.0,5.0,92,0.04,,,0.22,Wunderground v.1.15,2013-05-27 01:27:00,
2013-05-26 20:29:00,55.8,53.5,30.10,East,91,3.0,5.0,92,0.04,,,0.22,Wunderground v.1.15,2013-05-27 01:29:00,
2013-05-26 20:30:00,55.8,53.5,30.10,ESE,103,3.0,7.0,92,0.04,,,0.22,Wunderground v.1.15,2013-05-27 01:30:00,
2013-05-26 20:34:00,55.7,53.4,30.10,East,96,3.0,7.0,92,0.04,,,0.22,Wunderground v.1.15,2013-05-27 01:34:00,
2013-05-26 20:36:00,55.7,53.4,30.10,East,95,3.0,7.0,92,0.04,,,0.22,Wunderground v.1.15,2013-05-27 01:36:00,
2013-05-26 20:37:00,55.7,53.4,30.10,NE,54,3.0,7.0,92,0.00,,,0.22,Wunderground v.1.15,2013-05-27 01:37:00,
2013-05-26 20:38:00,55.7,53.4,30.10,East,94,3.0,7.0,92,0.00,,,0.22,Wunderground v.1.15,2013-05-27 01:38:00,
2013-05-26 20:40:00,55.7,53.4,30.10,East,94,3.0,6.0,92,0.00,,,0.22,Wunderground v.1.15,2013-05-27 01:40:00,
2013-05-26 20:43:00,55.7,53.4,30.10,ESE,116,3.0,7.0,92,0.00,,,0.22,Wunderground v.1.15,2013-05-27 01:43:00,
2013-05-26 20:44:00,55.7,53.4,30.10,East,96,3.0,7.0,92,0.00,,,0.22,Wunderground v.1.15,2013-05-27 01:44:00,
2013-05-26 20:45:00,55.7,53.4,30.10,ENE,69,3.0,7.0,92,0.00,,,0.22,Wunderground v.1.15,2013-05-27 01:45:00,
2013-05-26 20:46:00,55.6,53.3,30.10,East,93,3.0,7.0,92,0.00,,,0.22,Wunderground v.1.15,2013-05-27 01:46:00,
2013-05-26 20:49:00,55.6,53.3,30.10,East,92,3.0,7.0,92,0.00,,,0.22,Wunderground v.1.15,2013-05-27 01:49:00,
2013-05-26 20:51:00,55.6,53.3,30.10,ESE,102,3.0,4.0,92,0.00,,,0.22,Wunderground v.1.15,2013-05-27 01:51:00,
2013-05-26 20:52:00,55.6,53.3,30.10,ESE,102,3.0,4.0,92,0.00,,,0.22,Wunderground v.1.15,2013-05-27 01:52:00,
2013-05-26 20:55:00,55.6,53.3,30.10,East,97,3.0,4.0,92,0.00,,,0.22,Wunderground v.1.15,2013-05-27 01:55:00,
2013-05-26 20:57:00,55.6,53.3,30.10,SE,140,3.0,7.0,92,0.00,,,0.22,Wunderground v.1.15,2013-05-27 01:57:00,
2013-05-26 21:00:00,55.6,53.3,30.10,ENE,74,4.0,4.0,92,0.00,,,0.22,Wunderground v.1.15,2013-05-27 02:00:00,
2013-05-26 21:02:00,55.5,53.2,30.10,ESE,110,4.0,5.0,92,0.00,,,0.22,Wunderground v.1.15,2013-05-27 02:02:00,
2013-05-26 21:05:00,55.5,53.2,30.10,ESE,103,4.0,5.0,92,0.00,,,0.22,Wunderground v.1.15,2013-05-27 02:05:00,
2013-05-26 21:08:00,55.5,53.2,30.10,East,82,3.0,5.0,92,0.00,,,0.22,Wunderground v.1.15,2013-05-27 02:08:00,
2013-05-26 21:09:00,55.5,53.2,30.10,East,83,3.0,5.0,92,0.00,,,0.22,Wunderground v.1.15,2013-05-27 02:09:00,
2013-05-26 21:10:00,55.5,53.2,30.10,ENE,68,3.0,3.0,92,0.00,,,0.22,Wunderground v.1.15,2013-05-27 02:10:00,
2013-05-26 21:11:00,55.5,53.2,30.10,ESE,108,3.0,5.0,92,0.00,,,0.22,Wunderground v.1.15,2013-05-27 02:11:00,
2013-05-26 21:14:00,55.5,53.2,30.10,East,90,3.0,5.0,92,0.00,,,0.22,Wunderground v.1.15,2013-05-27 02:14:00,
2013-05-26 21:17:00,55.5,53.2,30.10,ESE,116,3.0,6.0,92,0.00,,,0.22,Wunderground v.1.15,2013-05-27 02:17:00,
2013-05-26 21:19:00,55.5,53.2,30.11,East,88,4.0,6.0,92,0.00,,,0.22,Wunderground v.1.15,2013-05-27 02:19:00,
2013-05-26 21:20:00,55.5,53.2,30.11,East,86,3.0,4.0,92,0.00,,,0.22,Wunderground v.1.15,2013-05-27 02:20:00,
2013-05-26 21:22:00,55.5,53.2,30.11,ESE,107,4.0,5.0,92,0.00,,,0.22,Wunderground v.1.15,2013-05-27 02:22:00,
2013-05-26 21:25:00,55.5,53.2,30.11,ESE,108,3.0,5.0,92,0.00,,,0.22,Wunderground v.1.15,2013-05-27 02:25:00,
2013-05-26 21:26:00,55.6,53.3,30.11,ESE,122,4.0,5.0,92,0.00,,,0.22,Wunderground v.1.15,2013-05-27 02:26:00,
2013-05-26 21:27:00,55.6,53.3,30.11,East,92,3.0,5.0,92,0.00,,,0.22,Wunderground v.1.15,2013-05-27 02:27:00,
2013-05-26 21:30:00,55.6,53.3,30.10,East,96,3.0,3.0,92,0.00,,,0.22,Wunderground v.1.15,2013-05-27 02:30:00,
2013-05-26 21:31:00,55.6,53.3,30.11,East,94,3.0,3.0,92,0.00,,,0.22,Wunderground v.1.15,2013-05-27 02:31:00,
2013-05-26 21:32:00,55.6,53.3,30.10,East,95,4.0,4.0,92,0.00,,,0.22,Wunderground v.1.15,2013-05-27 02:32:00,
2013-05-26 21:36:00,55.6,53.3,30.11,ESE,112,4.0,7.0,92,0.00,,,0.22,Wunderground v.1.15,2013-05-27 02:36:00,
2013-05-26 21:37:00,55.7,53.4,30.11,East,90,4.0,7.0,92,0.00,,,0.22,Wunderground v.1.15,2013-05-27 02:37:00,
2013-05-26 21:39:00,55.7,53.4,30.11,SE,130,4.0,7.0,92,0.00,,,0.22,Wunderground v.1.15,2013-05-27 02:39:00,
2013-05-26 21:43:00,55.7,53.4,30.11,East,88,4.0,6.0,92,0.00,,,0.22,Wunderground v.1.15,2013-05-27 02:43:00,
2013-05-26 21:44:00,55.7,53.4,30.11,ESE,102,4.0,6.0,92,0.00,,,0.22,Wunderground v.1.15,2013-05-27 02:44:00,
2013-05-26 21:45:00,55.7,53.4,30.11,East,92,4.0,6.0,92,0.00,,,0.22,Wunderground v.1.15,2013-05-27 02:45:00,
2013-05-26 21:46:00,55.7,53.4,30.11,ESE,123,4.0,6.0,92,0.00,,,0.22,Wunderground v.1.15,2013-05-27 02:46:00,
2013-05-26 21:47:00,55.7,53.4,30.11,ENE,78,4.0,10.0,92,0.00,,,0.22,Wunderground v.1.15,2013-05-27 02:47:00,
2013-05-26 21:49:00,55.8,53.5,30.11,ESE,111,4.0,10.0,92,0.00,,,0.22,Wunderground v.1.15,2013-05-27 02:49:00,
2013-05-26 21:52:00,55.8,53.5,30.11,East,84,3.0,8.0,92,0.00,,,0.22,Wunderground v.1.15,2013-05-27 02:52:00,
2013-05-26 21:53:00,55.7,53.4,30.11,ESE,123,4.0,8.0,92,0.00,,,0.22,Wunderground v.1.15,2013-05-27 02:53:00,
2013-05-26 21:54:00,55.8,53.5,30.11,ESE,123,4.0,8.0,92,0.00,,,0.22,Wunderground v.1.15,2013-05-27 02:54:00,
2013-05-26 21:55:00,55.7,53.4,30.11,ESE,121,3.0,8.0,92,0.00,,,0.22,Wunderground v.1.15,2013-05-27 02:55:00,
2013-05-26 21:58:00,55.8,53.5,30.11,East,91,3.0,8.0,92,0.00,,,0.22,Wunderground v.1.15,2013-05-27 02:58:00,
2013-05-26 21:59:00,55.8,53.5,30.11,East,90,3.0,8.0,92,0.00,,,0.22,Wunderground v.1.15,2013-05-27 02:59:00,
2013-05-26 22:02:00,55.8,53.5,30.11,ENE,67,4.0,6.0,92,0.00,,,0.22,Wunderground v.1.15,2013-05-27 03:02:00,
2013-05-26 22:04:00,55.8,53.5,30.11,East,92,4.0,7.0,92,0.00,,,0.22,Wunderground v.1.15,2013-05-27 03:04:00,
2013-05-26 22:07:00,55.8,53.5,30.11,East,90,5.0,7.0,92,0.00,,,0.22,Wunderground v.1.15,2013-05-27 03:07:00,
2013-05-26 22:09:00,55.8,53.5,30.10,East,92,5.0,7.0,92,0.00,,,0.22,Wunderground v.1.15,2013-05-27 03:09:00,
2013-05-26 22:10:00,55.8,53.5,30.10,East,101,5.0,5.0,92,0.00,,,0.22,Wunderground v.1.15,2013-05-27 03:10:00,
2013-05-26 22:11:00,55.9,53.6,30.10,ESE,107,5.0,6.0,92,0.00,,,0.22,Wunderground v.1.15,2013-05-27 03:11:00,
2013-05-26 22:15:00,55.9,53.6,30.10,East,95,4.0,6.0,92,0.00,,,0.22,Wunderground v.1.15,2013-05-27 03:15:00,
2013-05-26 22:17:00,55.9,53.6,30.10,East,94,4.0,6.0,92,0.00,,,0.22,Wunderground v.1.15,2013-05-27 03:17:00,
2013-05-26 22:19:00,55.9,53.6,30.10,East,88,4.0,6.0,92,0.00,,,0.22,Wunderground v.1.15,2013-05-27 03:19:00,
2013-05-26 22:20:00,55.9,53.6,30.10,East,101,4.0,4.0,92,0.00,,,0.22,Wunderground v.1.15,2013-05-27 03:20:00,
2013-05-26 22:21:00,55.9,53.6,30.10,East,83,4.0,4.0,92,0.00,,,0.22,Wunderground v.1.15,2013-05-27 03:21:00,
2013-05-26 22:23:00,56.0,53.7,30.10,East,98,3.0,4.0,92,0.00,,,0.22,Wunderground v.1.15,2013-05-27 03:23:00,
2013-05-26 22:25:00,56.0,53.7,30.10,ESE,102,4.0,5.0,92,0.00,,,0.22,Wunderground v.1.15,2013-05-27 03:25:00,
2013-05-26 22:26:00,56.0,53.7,30.10,ESE,111,4.0,5.0,92,0.00,,,0.22,Wunderground v.1.15,2013-05-27 03:26:00,
2013-05-26 22:27:00,56.0,53.7,30.10,ENE,67,4.0,5.0,92,0.00,,,0.22,Wunderground v.1.15,2013-05-27 03:27:00,
2013-05-26 22:30:00,56.0,53.7,30.10,ESE,117,4.0,4.0,92,0.00,,,0.22,Wunderground v.1.15,2013-05-27 03:30:00,
2013-05-26 22:31:00,56.0,53.7,30.10,ESE,106,4.0,4.0,92,0.00,,,0.22,Wunderground v.1.15,2013-05-27 03:31:00,
2013-05-26 22:33:00,56.0,53.7,30.10,East,80,4.0,4.0,92,0.00,,,0.22,Wunderground v.1.15,2013-05-27 03:33:00,
2013-05-26 22:34:00,56.0,53.7,30.10,ENE,77,4.0,4.0,92,0.00,,,0.22,Wunderground v.1.15,2013-05-27 03:34:00,
2013-05-26 22:38:00,56.0,53.7,30.10,ESE,113,3.0,6.0,92,0.00,,,0.22,Wunderground v.1.15,2013-05-27 03:38:00,
2013-05-26 22:40:00,56.0,53.7,30.11,ESE,118,3.0,3.0,92,0.00,,,0.22,Wunderground v.1.15,2013-05-27 03:40:00,
2013-05-26 22:44:00,56.0,53.7,30.11,East,100,3.0,5.0,92,0.00,,,0.22,Wunderground v.1.15,2013-05-27 03:44:00,
2013-05-26 22:45:00,56.0,53.7,30.11,East,99,3.0,5.0,92,0.00,,,0.22,Wunderground v.1.15,2013-05-27 03:45:00,
2013-05-26 22:46:00,56.1,53.8,30.10,East,85,3.0,5.0,92,0.00,,,0.22,Wunderground v.1.15,2013-05-27 03:46:00,
2013-05-26 22:51:00,56.1,53.8,30.10,ESE,106,3.0,4.0,92,0.00,,,0.22,Wunderground v.1.15,2013-05-27 03:51:00,
2013-05-26 22:52:00,56.1,53.8,30.10,ESE,107,3.0,4.0,92,0.00,,,0.22,Wunderground v.1.15,2013-05-27 03:52:00,
2013-05-26 22:53:00,56.1,53.8,30.10,ESE,117,3.0,4.0,92,0.00,,,0.22,Wunderground v.1.15,2013-05-27 03:53:00,
2013-05-26 22:54:00,56.1,53.8,30.10,ESE,107,3.0,4.0,92,0.00,,,0.22,Wunderground v.1.15,2013-05-27 03:54:00,
2013-05-26 22:56:00,56.1,53.8,30.10,ESE,118,3.0,4.0,92,0.00,,,0.22,Wunderground v.1.15,2013-05-27 03:56:00,
2013-05-26 22:59:00,56.1,53.8,30.10,ESE,109,3.0,4.0,92,0.00,,,0.22,Wunderground v.1.15,2013-05-27 03:59:00,
2013-05-26 23:01:00,56.1,53.8,30.10,ESE,102,3.0,5.0,92,0.00,,,0.22,Wunderground v.1.15,2013-05-27 04:01:00,
2013-05-26 23:02:00,56.1,53.8,30.10,ESE,104,3.0,5.0,92,0.00,,,0.22,Wunderground v.1.15,2013-05-27 04:02:00,
2013-05-26 23:03:00,56.1,53.8,30.10,ESE,107,3.0,5.0,92,0.00,,,0.22,Wunderground v.1.15,2013-05-27 04:03:00,
2013-05-26 23:06:00,56.1,53.8,30.10,East,90,2.0,5.0,92,0.00,,,0.22,Wunderground v.1.15,2013-05-27 04:06:00,
2013-05-26 23:07:00,56.1,53.8,30.10,East,91,3.0,5.0,92,0.00,,,0.22,Wunderground v.1.15,2013-05-27 04:07:00,
2013-05-26 23:10:00,56.1,53.8,30.10,ESE,121,3.0,3.0,92,0.00,,,0.22,Wunderground v.1.15,2013-05-27 04:10:00,
2013-05-26 23:11:00,56.1,53.8,30.10,East,95,3.0,3.0,92,0.00,,,0.22,Wunderground v.1.15,2013-05-27 04:11:00,
2013-05-26 23:12:00,56.1,53.8,30.10,East,89,3.0,5.0,92,0.00,,,0.22,Wunderground v.1.15,2013-05-27 04:12:00,
2013-05-26 23:13:00,56.1,53.8,30.10,East,98,3.0,5.0,92,0.00,,,0.22,Wunderground v.1.15,2013-05-27 04:13:00,
2013-05-26 23:15:00,56.1,53.8,30.10,East,85,3.0,5.0,92,0.00,,,0.23,Wunderground v.1.15,2013-05-27 04:15:00,
2013-05-26 23:19:00,56.1,53.8,30.10,ESE,103,2.0,5.0,92,0.00,,,0.23,Wunderground v.1.15,2013-05-27 04:19:00,
2013-05-26 23:21:00,56.1,53.8,30.10,East,91,3.0,4.0,92,0.00,,,0.23,Wunderground v.1.15,2013-05-27 04:21:00,
2013-05-26 23:22:00,56.1,53.8,30.10,East,92,3.0,4.0,92,0.00,,,0.23,Wunderground v.1.15,2013-05-27 04:22:00,
2013-05-26 23:24:00,56.1,53.8,30.10,ESE,104,3.0,4.0,92,0.00,,,0.23,Wunderground v.1.15,2013-05-27 04:24:00,
2013-05-26 23:26:00,56.0,53.7,30.09,East,87,3.0,6.0,92,0.05,,,0.24,Wunderground v.1.15,2013-05-27 04:26:00,
2013-05-26 23:30:00,56.0,53.7,30.10,East,100,3.0,4.0,92,0.05,,,0.24,Wunderground v.1.15,2013-05-27 04:30:00,
2013-05-26 23:31:00,56.0,53.7,30.10,East,92,4.0,4.0,92,0.05,,,0.24,Wunderground v.1.15,2013-05-27 04:31:00,
2013-05-26 23:35:00,56.0,53.7,30.10,East,96,3.0,4.0,92,0.05,,,0.24,Wunderground v.1.15,2013-05-27 04:35:00,
2013-05-26 23:39:00,56.0,53.7,30.10,East,94,3.0,4.0,92,0.05,,,0.24,Wunderground v.1.15,2013-05-27 04:39:00,
2013-05-26 23:40:00,55.9,53.6,30.10,East,86,3.0,4.0,92,0.04,,,0.24,Wunderground v.1.15,2013-05-27 04:40:00,
2013-05-26 23:42:00,55.9,53.6,30.10,East,91,2.0,4.0,92,0.04,,,0.24,Wunderground v.1.15,2013-05-27 04:42:00,
2013-05-26 23:45:00,55.9,53.6,30.10,East,93,3.0,6.0,92,0.00,,,0.24,Wunderground v.1.15,2013-05-27 04:45:00,
2013-05-26 23:48:00,55.9,53.6,30.10,ESE,109,3.0,6.0,92,0.00,,,0.24,Wunderground v.1.15,2013-05-27 04:48:00,
2013-05-26 23:50:00,55.9,53.6,30.10,East,98,3.0,3.0,92,0.00,,,0.24,Wunderground v.1.15,2013-05-27 04:50:00,
2013-05-26 23:54:00,55.8,53.8,30.09,East,92,3.0,5.0,93,0.00,,,0.24,Wunderground v.1.15,2013-05-27 04:54:00,
2013-05-26 23:56:00,55.8,53.8,30.09,East,92,3.0,5.0,93,0.00,,,0.24,Wunderground v.1.15,2013-05-27 04:56:00,
2013-05-26 23:58:00,55.8,53.8,30.09,East,92,2.0,5.0,93,0.00,,,0.24,Wunderground v.1.15,2013-05-27 04:58:00,